LiveATC.Net - Listen to live air traffic control over the Internet!

Find LiveATC Audio Streams


Airport/ARTCC Code

Frequency Search
(e.g., 124.400, 128.75)
Site-wide search
 


Browse LiveATC Feeds
Top 50 LiveATC Feeds
LiveATC Feed Map
Bad Weather Areas

LiveATC FAQ
Offer LiveATC feed
Contact LiveATC.net
Press Inquiries

LiveATC on iPhone
LiveATC on Android

Windows Phone
Windows 8/10

LiveATC Mobile
(Mobile browser)

ATC Audio Archives
Interesting Recordings

LiveATC Forums

Home Page
About LiveATC.net
Make a Donation
Terms of Use
Privacy Policy

Canadian Air Freqs

AIRMETs/SIGMETs

FAA Airport Status
Nat'l Airspace Status
Arrival Demand Charts


Server Software By:
Icecast.org
Liquidsoap

Select an area of interest:
U.S. Feeds: Class B Airports | Class C Airports | Class D/Other Airports | ARTCC (Centers)
International Feeds: Canada | Europe | Oceania | Asia | South America | North/Central America | Africa
Misc Feeds: HF Feeds
Search by ICAO/IATA airport code:   (e.g., kbos, kjfk, lax, eham, etc.)


Currently Available Live Feeds: 2371
Status Updated: Sat Mar 23 2019 00:26:01 UTC


NOTICE

Unauthorized use prohibited. See LiveATC.net Terms of Service

Europe Airport Feeds

 

EFKK Tower (Archives)
Kronoby, Finland

Feed Status: UP
Listen in your browser - HTML5 player(in browser, HTML5)
Click here to listen with your own player(launches your MP3 player)

EFKK 222350Z AUTO 16021KT CAVOK 03/M03 Q1010

EFKK Flight Activity (Flightaware)

Listeners: 1 out of 1107 total

Kronoby Tower: 120.100

EFKU Tower/Approach (Archives)
Siilinjarvi, Finland

Feed Status: UP
Listen in your browser - HTML5 player(in browser, HTML5)
Click here to listen with your own player(launches your MP3 player)

EFKU 222350Z AUTO 16010KT CAVOK M02/M08 Q1019

EFKU Flight Activity (Flightaware)

Listeners: 1 out of 1107 total

Kuopio Approach: 130.600
Kuopio Tower: 120.150

Dutch Mil Radar (Archives)
Amsterdam, Netherlands

Feed Status: UP
Listen in your browser - HTML5 player(in browser, HTML5)
Click here to listen with your own player(launches your MP3 player)

EHLE Flight Activity (Flightaware)

Listeners: 1 out of 1107 total

Dutch Mil Flight Info: 264.325
Dutch Mil Radar: 128.355
Dutch Mil Radar: 132.350

EHAA Radar ARTIP (Archives)
Amsterdam, Netherlands

Feed Status: UP
Listen in your browser - HTML5 player(in browser, HTML5)
Click here to listen with your own player(launches your MP3 player)

EHAM 222355Z 25005KT 4500 BR BKN019 08/07 Q1027 BECMG 3000 NSC

EHAM Flight Activity (Flightaware)

Listeners: 0 out of 1107 total

EHAA Radar Sector 1 ARTIP: 120.550

EHAA Radar East Inbound
Amsterdam, Netherlands

Feed Status: DOWN
Offline since: 2019-03-13 16:57:02 UTC

EHAM 222355Z 25005KT 4500 BR BKN019 08/07 Q1027 BECMG 3000 NSC

EHAA Radar Sector 2 East Inbound: 128.575

EHAA Radar East Outbound (Archives)
Amsterdam, Netherlands

Feed Status: UP
Listen in your browser - HTML5 player(in browser, HTML5)
Click here to listen with your own player(launches your MP3 player)

EHAM 222355Z 25005KT 4500 BR BKN019 08/07 Q1027 BECMG 3000 NSC

EHAM Flight Activity (Flightaware)

Listeners: 1 out of 1107 total

EHAA Radar Sector 2 East Outbound: 124.875

EHAA Radar North
Amsterdam, Netherlands

Feed Status: DOWN
Offline since: 2019-03-13 16:59:02 UTC

EHAM 222355Z 25005KT 4500 BR BKN019 08/07 Q1027 BECMG 3000 NSC

EHAA Radar Sector 1 North: 134.375

EHAA Radar Northwest (Archives)
Amsterdam, Netherlands

Feed Status: UP
Listen in your browser - HTML5 player(in browser, HTML5)
Click here to listen with your own player(launches your MP3 player)

EHAM 222355Z 25005KT 4500 BR BKN019 08/07 Q1027 BECMG 3000 NSC

EHAM Flight Activity (Flightaware)

Listeners: 0 out of 1107 total

EHAA Radar Sector 5 Northwest: 123.7000

EHAA Radar RIVER
Amsterdam, Netherlands

Feed Status: DOWN
Offline since: 2019-03-13 16:57:02 UTC

EHAM 222355Z 25005KT 4500 BR BKN019 08/07 Q1027 BECMG 3000 NSC

EHAA Radar Sector 3 RIVER: 130.950

EHAA Radar South (Archives)
Amsterdam, Netherlands

Feed Status: UP
Listen in your browser - HTML5 player(in browser, HTML5)
Click here to listen with your own player(launches your MP3 player)

EHAM 222355Z 25005KT 4500 BR BKN019 08/07 Q1027 BECMG 3000 NSC

EHAM Flight Activity (Flightaware)

Listeners: 0 out of 1107 total

EHAA Radar Sector 3 South: 123.850

EHAA Radar South (Backup) (Archives)
Amsterdam, Netherlands

Feed Status: UP
Listen in your browser - HTML5 player(in browser, HTML5)
Click here to listen with your own player(launches your MP3 player)

EHAM 222355Z 25005KT 4500 BR BKN019 08/07 Q1027 BECMG 3000 NSC

EHAM Flight Activity (Flightaware)

Listeners: 0 out of 1107 total

EHAA Radar Sector 3 South Backup : 127.775

EHAA Radar Southwest (Archives)
Amsterdam, Netherlands

Feed Status: UP
Listen in your browser - HTML5 player(in browser, HTML5)
Click here to listen with your own player(launches your MP3 player)

EHAM 222355Z 25005KT 4500 BR BKN019 08/07 Q1027 BECMG 3000 NSC

EHAM Flight Activity (Flightaware)

Listeners: 0 out of 1107 total

EHAA Radar Sector 4 Southwest: 125.750

EHAA Radar SUGOL (Archives)
Amsterdam, Netherlands

Feed Status: UP
Listen in your browser - HTML5 player(in browser, HTML5)
Click here to listen with your own player(launches your MP3 player)

EHAM 222355Z 25005KT 4500 BR BKN019 08/07 Q1027 BECMG 3000 NSC

EHAM Flight Activity (Flightaware)

Listeners: 0 out of 1107 total

EHAA Radar Sector 5 SUGOL: 118.800

EHAM Airside Ops Mgr (AOM)
Amsterdam, Netherlands

Feed Status: DOWN
Offline since: 2019-03-13 17:05:02 UTC

EHAM 222355Z 25005KT 4500 BR BKN019 08/07 Q1027 BECMG 3000 NSC

Schiphol Airside Operations Manager: 130.475

EHAM App/Dep Backup (Archives)
Amsterdam, Netherlands

Feed Status: UP
Listen in your browser - HTML5 player(in browser, HTML5)
Click here to listen with your own player(launches your MP3 player)

EHAM 222355Z 25005KT 4500 BR BKN019 08/07 Q1027 BECMG 3000 NSC

EHAM Flight Activity (Flightaware)

Listeners: 0 out of 1107 total

Schiphol App/Dep Backup: 118.075

EHAM App/Dep TMA East (Archives)
Amsterdam, Netherlands

Feed Status: UP
Listen in your browser - HTML5 player(in browser, HTML5)
Click here to listen with your own player(launches your MP3 player)

EHAM 222355Z 25005KT 4500 BR BKN019 08/07 Q1027 BECMG 3000 NSC

EHAM Flight Activity (Flightaware)

Listeners: 0 out of 1107 total

Amsterdam Approach/Departure TMA East: 119.055

EHAM App/Dep TMA West (Archives)
Amsterdam, Netherlands

Feed Status: UP
Listen in your browser - HTML5 player(in browser, HTML5)
Click here to listen with your own player(launches your MP3 player)

EHAM 222355Z 25005KT 4500 BR BKN019 08/07 Q1027 BECMG 3000 NSC

EHAM Flight Activity (Flightaware)

Listeners: 0 out of 1107 total

Amsterdam Approach/Departure TMA West: 121.200

EHAM Apron (North) (Archives)
Amsterdam, Netherlands

Feed Status: UP
Listen in your browser - HTML5 player(in browser, HTML5)
Click here to listen with your own player(launches your MP3 player)

EHAM 222355Z 25005KT 4500 BR BKN019 08/07 Q1027 BECMG 3000 NSC

EHAM Flight Activity (Flightaware)

Listeners: 0 out of 1107 total

Schiphol Apron (North): 121.880

EHAM Apron (South) (Archives)
Amsterdam, Netherlands

Feed Status: UP
Listen in your browser - HTML5 player(in browser, HTML5)
Click here to listen with your own player(launches your MP3 player)

EHAM 222355Z 25005KT 4500 BR BKN019 08/07 Q1027 BECMG 3000 NSC

EHAM Flight Activity (Flightaware)

Listeners: 0 out of 1107 total

Schiphol Apron (South): 121.780

EHAM Arrival (Primary) (Archives)
Amsterdam, Netherlands

Feed Status: UP
Listen in your browser - HTML5 player(in browser, HTML5)
Click here to listen with your own player(launches your MP3 player)

EHAM 222355Z 25005KT 4500 BR BKN019 08/07 Q1027 BECMG 3000 NSC

EHAM Flight Activity (Flightaware)

Listeners: 0 out of 1107 total

Amsterdam Arrival : 118.400

EHAM Arrival (Secondary)
Amsterdam, Netherlands

Feed Status: DOWN
Offline since: 2019-03-13 16:59:02 UTC

EHAM 222355Z 25005KT 4500 BR BKN019 08/07 Q1027 BECMG 3000 NSC

Amsterdam Arrival (Secondary): 131.150

EHAM Arrival (Secondary/Backup)
Amsterdam, Netherlands

Feed Status: DOWN
Offline since: 2019-03-13 16:59:02 UTC

EHAM 222355Z 25005KT 4500 BR BKN019 08/07 Q1027 BECMG 3000 NSC

Amsterdam Arrival (Secondary Backup): 131.275

EHAM Arrival Backup/Discrete (Archives)
Amsterdam, Netherlands

Feed Status: UP
Listen in your browser - HTML5 player(in browser, HTML5)
Click here to listen with your own player(launches your MP3 player)

EHAM 222355Z 25005KT 4500 BR BKN019 08/07 Q1027 BECMG 3000 NSC

EHAM Flight Activity (Flightaware)

Listeners: 0 out of 1107 total

Schiphol Arrival Backup: 126.675

EHAM Clearance Delivery (Archives)
Amsterdam, Netherlands

Feed Status: UP
Listen in your browser - HTML5 player(in browser, HTML5)
Click here to listen with your own player(launches your MP3 player)

EHAM 222355Z 25005KT 4500 BR BKN019 08/07 Q1027 BECMG 3000 NSC

EHAM Flight Activity (Flightaware)

Listeners: 1 out of 1107 total

Schiphol Clearance Delivery: 121.980

EHAM Ground (Backup) (Archives)
Amsterdam, Netherlands

Feed Status: UP
Listen in your browser - HTML5 player(in browser, HTML5)
Click here to listen with your own player(launches your MP3 player)

EHAM 222355Z 25005KT 4500 BR BKN019 08/07 Q1027 BECMG 3000 NSC

EHAM Flight Activity (Flightaware)

Listeners: 0 out of 1107 total

Schiphol Ground (Backup): 122.425

EHAM Ground (North) (Archives)
Amsterdam, Netherlands

Feed Status: UP
Listen in your browser - HTML5 player(in browser, HTML5)
Click here to listen with your own player(launches your MP3 player)

EHAM 222355Z 25005KT 4500 BR BKN019 08/07 Q1027 BECMG 3000 NSC

EHAM Flight Activity (Flightaware)

Listeners: 0 out of 1107 total

Schiphol Ground (North): 121.805

EHAM Ground (South) (Archives)
Amsterdam, Netherlands

Feed Status: UP
Listen in your browser - HTML5 player(in browser, HTML5)
Click here to listen with your own player(launches your MP3 player)

EHAM 222355Z 25005KT 4500 BR BKN019 08/07 Q1027 BECMG 3000 NSC

EHAM Flight Activity (Flightaware)

Listeners: 0 out of 1107 total

Schiphol Ground (South): 121.705

EHAM Ground (West) (Archives)
Amsterdam, Netherlands

Feed Status: UP
Listen in your browser - HTML5 player(in browser, HTML5)
Click here to listen with your own player(launches your MP3 player)

EHAM 222355Z 25005KT 4500 BR BKN019 08/07 Q1027 BECMG 3000 NSC

EHAM Flight Activity (Flightaware)

Listeners: 0 out of 1107 total

Schiphol Ground (West): 121.560

EHAM Info North Sea (North) (Archives)
Amsterdam, Netherlands

Feed Status: UP
Listen in your browser - HTML5 player(in browser, HTML5)
Click here to listen with your own player(launches your MP3 player)

EHAM 222355Z 25005KT 4500 BR BKN019 08/07 Q1027 BECMG 3000 NSC

EHAM Flight Activity (Flightaware)

Listeners: 0 out of 1107 total

Amsterdam Info North Sea (North): 119.175

EHAM Info North Sea (Over Land) (Archives)
Amsterdam, Netherlands

Feed Status: UP
Listen in your browser - HTML5 player(in browser, HTML5)
Click here to listen with your own player(launches your MP3 player)

EHAM 222355Z 25005KT 4500 BR BKN019 08/07 Q1027 BECMG 3000 NSC

EHAM Flight Activity (Flightaware)

Listeners: 1 out of 1107 total

Amsterdam Info North Sea (Over Land): 124.300

EHAM Info North Sea (South)
Amsterdam, Netherlands

Feed Status: DOWN
Offline since: 2019-03-13 16:57:02 UTC

EHAM 222355Z 25005KT 4500 BR BKN019 08/07 Q1027 BECMG 3000 NSC

Amsterdam Info North Sea (South): 136.650

EHAM Ops (Archives)
Amsterdam, Netherlands

Feed Status: UP
Listen in your browser - HTML5 player(in browser, HTML5)
Click here to listen with your own player(launches your MP3 player)

EHAM 222355Z 25005KT 4500 BR BKN019 08/07 Q1027 BECMG 3000 NSC

EHAM Flight Activity (Flightaware)

Listeners: 0 out of 1107 total

Schiphol Ops 1: 465.770
Schiphol Ops 2: 466.470
Schiphol Runway Ops: 447.175

EHAM Schiphol Outbound Planner (Archives)
Amsterdam, Netherlands

Feed Status: UP
Listen in your browser - HTML5 player(in browser, HTML5)
Click here to listen with your own player(launches your MP3 player)

EHAM 222355Z 25005KT 4500 BR BKN019 08/07 Q1027 BECMG 3000 NSC

EHAM Flight Activity (Flightaware)

Listeners: 0 out of 1107 total

Schiphol Outbound Planner: 121.655

EHAM Tow Traffic
Amsterdam, Netherlands

Feed Status: DOWN
Offline since: 2019-03-13 17:03:02 UTC

EHAM 222355Z 25005KT 4500 BR BKN019 08/07 Q1027 BECMG 3000 NSC

Schiphol Tow Traffic: 134.875

EHAM Tower (06/24) (Archives)
Amsterdam, Netherlands

Feed Status: UP
Listen in your browser - HTML5 player(in browser, HTML5)
Click here to listen with your own player(launches your MP3 player)

EHAM 222355Z 25005KT 4500 BR BKN019 08/07 Q1027 BECMG 3000 NSC

EHAM Flight Activity (Flightaware)

Listeners: 0 out of 1107 total

Schiphol Tower Main 06/24: 118.950

EHAM Tower (18C/36C-27/09) (Archives)
Amsterdam, Netherlands

Feed Status: UP
Listen in your browser - HTML5 player(in browser, HTML5)
Click here to listen with your own player(launches your MP3 player)

EHAM 222355Z 25005KT 4500 BR BKN019 08/07 Q1027 BECMG 3000 NSC

EHAM Flight Activity (Flightaware)

Listeners: 0 out of 1107 total

Schiphol Tower Main 18C/36C - 27/09: 118.100

EHAM Tower (18L/36R-22/04) (Archives)
Amsterdam, Netherlands

Feed Status: UP
Listen in your browser - HTML5 player(in browser, HTML5)
Click here to listen with your own player(launches your MP3 player)

EHAM 222355Z 25005KT 4500 BR BKN019 08/07 Q1027 BECMG 3000 NSC

EHAM Flight Activity (Flightaware)

Listeners: 1 out of 1107 total

Schiphol Tower Main 18L/36R - 22/04: 119.225

EHAM Tower Backup (Archives)
Amsterdam, Netherlands

Feed Status: UP
Listen in your browser - HTML5 player(in browser, HTML5)
Click here to listen with your own player(launches your MP3 player)

EHAM 222355Z 25005KT 4500 BR BKN019 08/07 Q1027 BECMG 3000 NSC

EHAM Flight Activity (Flightaware)

Listeners: 0 out of 1107 total

Schiphol Tower Backup: 119.905

EHAM Tower West (18R/36L) (Archives)
Amsterdam, Netherlands

Feed Status: UP
Listen in your browser - HTML5 player(in browser, HTML5)
Click here to listen with your own player(launches your MP3 player)

EHAM 222355Z 25005KT 4500 BR BKN019 08/07 Q1027 BECMG 3000 NSC

EHAM Flight Activity (Flightaware)

Listeners: 0 out of 1107 total

Schiphol Tower West 18R/36L: 118.280

EHBK ATIS (Archives)
Beek, Netherlands

Feed Status: UP
Listen in your browser - HTML5 player(in browser, HTML5)
Click here to listen with your own player(launches your MP3 player)

EHBK 222355Z AUTO 22005KT 9999 NSC 08/04 Q1027

EHBK Flight Activity (Flightaware)

Listeners: 0 out of 1107 total

Beek ATIS: 124.575

EHBK Gnd/Twr/App (Archives)
Beek, Netherlands

Feed Status: UP
Listen in your browser - HTML5 player(in browser, HTML5)
Click here to listen with your own player(launches your MP3 player)

EHBK 222355Z AUTO 22005KT 9999 NSC 08/04 Q1027

EHBK Flight Activity (Flightaware)

Listeners: 0 out of 1107 total

Beek Approach: 120.200
Beek Approach: 123.975
Beek Ground: 121.825
Beek Tower: 119.475
Beek Tower: 119.700

MUAC/Eurocontrol Delta High (Archives)
Beek, Netherlands

Feed Status: UP
Listen in your browser - HTML5 player(in browser, HTML5)
Click here to listen with your own player(launches your MP3 player)

EHBK 222355Z AUTO 22005KT 9999 NSC 08/04 Q1027

EHBK Flight Activity (Flightaware)

Listeners: 0 out of 1107 total

MUAC Delta High Sector: 132.085

MUAC/Eurocontrol Koksy (Archives)
Beek, Netherlands

Feed Status: UP
Listen in your browser - HTML5 player(in browser, HTML5)
Click here to listen with your own player(launches your MP3 player)

EHBK 222355Z AUTO 22005KT 9999 NSC 08/04 Q1027

EHBK Flight Activity (Flightaware)

Listeners: 0 out of 1107 total

MUAC Koksy Sector: 132.205

MUAC/Eurocontrol Koksy High (Archives)
Beek, Netherlands

Feed Status: UP
Listen in your browser - HTML5 player(in browser, HTML5)
Click here to listen with your own player(launches your MP3 player)

EHBK 222355Z AUTO 22005KT 9999 NSC 08/04 Q1027

EHBK Flight Activity (Flightaware)

Listeners: 3 out of 1107 total

MUAC Koksy High Sector: 132.755

MUAC/Eurocontrol Lux High (Archives)
Beek, Netherlands

Feed Status: UP
Listen in your browser - HTML5 player(in browser, HTML5)
Click here to listen with your own player(launches your MP3 player)

EHBK 222355Z AUTO 22005KT 9999 NSC 08/04 Q1027

EHBK Flight Activity (Flightaware)

Listeners: 0 out of 1107 total

MUAC Lux High Sector: 132.315

MUAC/Eurocontrol Lux Low (Archives)
Beek, Netherlands

Feed Status: UP
Listen in your browser - HTML5 player(in browser, HTML5)
Click here to listen with your own player(launches your MP3 player)

EHBK 222355Z AUTO 22005KT 9999 NSC 08/04 Q1027

EHBK Flight Activity (Flightaware)

Listeners: 0 out of 1107 total

MUAC Lux Low Sector: 133.355

MUAC/Eurocontrol Olno Low (Archives)
Beek, Netherlands

Feed Status: UP
Listen in your browser - HTML5 player(in browser, HTML5)
Click here to listen with your own player(launches your MP3 player)

EHBK 222355Z AUTO 22005KT 9999 NSC 08/04 Q1027

EHBK Flight Activity (Flightaware)

Listeners: 0 out of 1107 total

MUAC Olno Low Sector: 132.855

MUAC/Eurocontrol Ruhr (Archives)
Beek, Netherlands

Feed Status: UP
Listen in your browser - HTML5 player(in browser, HTML5)
Click here to listen with your own player(launches your MP3 player)

EHBK 222355Z AUTO 22005KT 9999 NSC 08/04 Q1027

EHBK Flight Activity (Flightaware)

Listeners: 0 out of 1107 total

MUAC Ruhr Sector: 132.515

EHEH Approach #1 (Archives)
Eindhoven, Netherlands

Feed Status: UP
Listen in your browser - HTML5 player(in browser, HTML5)
Click here to listen with your own player(launches your MP3 player)

EHEH 222355Z AUTO 31005KT 260V360 1600 BR OVC002 07/07 Q1028 AMB

EHEH Flight Activity (Flightaware)

Listeners: 0 out of 1107 total

Eindhoven Approach: 132.525
Eindhoven Arrival/Director: 124.525
Emergency/Guard: 121.500

EHEH Approach #2 (Archives)
Eindhoven, Netherlands

Feed Status: UP
Listen in your browser - HTML5 player(in browser, HTML5)
Click here to listen with your own player(launches your MP3 player)

EHEH 222355Z AUTO 31005KT 260V360 1600 BR OVC002 07/07 Q1028 AMB

EHEH Flight Activity (Flightaware)

Listeners: 0 out of 1107 total

Eindhoven Approach/Arrival: 124.530
Eindhoven Approach/Arrival: 132.530
Eindhoven Approach/Arrival: 278.050

EHEH Ground (Archives)
Eindhoven, Netherlands

Feed Status: UP
Listen in your browser - HTML5 player(in browser, HTML5)
Click here to listen with your own player(launches your MP3 player)

EHEH 222355Z AUTO 31005KT 260V360 1600 BR OVC002 07/07 Q1028 AMB

EHEH Flight Activity (Flightaware)

Listeners: 0 out of 1107 total

Eindhoven Ground: 121.930
Eindhoven Ground: 369.250

EHEH Tower #1 (Archives)
Eindhoven, Netherlands

Feed Status: UP
Listen in your browser - HTML5 player(in browser, HTML5)
Click here to listen with your own player(launches your MP3 player)

EHEH 222355Z AUTO 31005KT 260V360 1600 BR OVC002 07/07 Q1028 AMB

EHEH Flight Activity (Flightaware)

Listeners: 0 out of 1107 total

Budel Tower: 122.150
Eindhoven Tower: 131.005
Emergency/Guard: 121.500
Generic Tower: 122.100
Volkel Tower: 136.075

EHEH Tower #2 (Archives)
Eindhoven, Netherlands

Feed Status: UP
Listen in your browser - HTML5 player(in browser, HTML5)
Click here to listen with your own player(launches your MP3 player)

EHEH 222355Z AUTO 31005KT 260V360 1600 BR OVC002 07/07 Q1028 AMB

EHEH Flight Activity (Flightaware)

Listeners: 0 out of 1107 total

Eindhoven Tower: 122.100
Eindhoven Tower: 131.005
Eindhoven Tower: 281.150

EHGG Approach (Archives)
Groningen, Netherlands

Feed Status: UP
Listen in your browser - HTML5 player(in browser, HTML5)
Click here to listen with your own player(launches your MP3 player)

EHGG 222355Z AUTO 26003KT 230V300 2500 BR OVC012 06/05 Q1027

EHGG Flight Activity (Flightaware)

Listeners: 1 out of 1107 total

Eelde Approach: 120.305

EHGG ATIS
Groningen, Netherlands

Feed Status: DOWN
Offline since: 2019-03-05 10:16:03 UTC

EHGG 222355Z AUTO 26003KT 230V300 2500 BR OVC012 06/05 Q1027

Groningen ATIS: 133.555

EHGG Ground (Archives)
Groningen, Netherlands

Feed Status: UP
Listen in your browser - HTML5 player(in browser, HTML5)
Click here to listen with your own player(launches your MP3 player)

EHGG 222355Z AUTO 26003KT 230V300 2500 BR OVC012 06/05 Q1027

EHGG Flight Activity (Flightaware)

Listeners: 0 out of 1107 total

Eelde Clearance Delivery/Ground: 121.705

EHGG Guard/Emergency (Archives)
Groningen, Netherlands

Feed Status: UP
Listen in your browser - HTML5 player(in browser, HTML5)
Click here to listen with your own player(launches your MP3 player)

EHGG 222355Z AUTO 26003KT 230V300 2500 BR OVC012 06/05 Q1027

EHGG Flight Activity (Flightaware)

Listeners: 0 out of 1107 total

Emergency/Guard: 121.500

EHGG Tower (Archives)
Groningen, Netherlands

Feed Status: UP
Listen in your browser - HTML5 player(in browser, HTML5)
Click here to listen with your own player(launches your MP3 player)

EHGG 222355Z AUTO 26003KT 230V300 2500 BR OVC012 06/05 Q1027

EHGG Flight Activity (Flightaware)

Listeners: 0 out of 1107 total

Eelde Tower: 118.705

MUAC/Eurocontrol (EHGG Area) (Archives)
Groningen, Netherlands

Feed Status: UP
Listen in your browser - HTML5 player(in browser, HTML5)
Click here to listen with your own player(launches your MP3 player)

EHGG 222355Z AUTO 26003KT 230V300 2500 BR OVC012 06/05 Q1027

EHGG Flight Activity (Flightaware)

Listeners: 0 out of 1107 total

MUAC Holstein High Sector: 132.775
MUAC Holstein Sector: 120.9333
MUAC Javer High Sector: 134.700
MUAC Jever Sector: 136.4666

EHGR Twr/TMA/App (Archives)
Breda, Netherlands

Feed Status: UP
Listen in your browser - HTML5 player(in browser, HTML5)
Click here to listen with your own player(launches your MP3 player)

EHGR 222355Z AUTO 29008KT 270V330 3100 BR SCT006 BKN008 OVC010 08/07 Q1028 YLO

EHGR Flight Activity (Flightaware)

Listeners: 0 out of 1107 total

Gilze Rijen Ground: 121.680
Gilze Rijen Tower: 125.330

EHGR Mode-S Tracking
EHEH Mode-S Tracking

EHHV CTAF (Archives)
Hilversum, Netherlands

Feed Status: UP
Listen in your browser - HTML5 player(in browser, HTML5)
Click here to listen with your own player(launches your MP3 player)

EHHV Flight Activity (Flightaware)

Listeners: 0 out of 1107 total

Hilversum Radio: 131.025

Dutch Mil Radar (Archives)
Lelystad, Netherlands

Feed Status: UP
Listen in your browser - HTML5 player(in browser, HTML5)
Click here to listen with your own player(launches your MP3 player)

EHLE Flight Activity (Flightaware)

Listeners: 1 out of 1107 total

Dutch Mil Flight Info: 264.325
Dutch Mil Radar: 128.355
Dutch Mil Radar: 132.350

EHLE Air to Air (Archives)
Lelystad, Netherlands

Feed Status: UP
Listen in your browser - HTML5 player(in browser, HTML5)
Click here to listen with your own player(launches your MP3 player)

EHLE Flight Activity (Flightaware)

Listeners: 0 out of 1107 total

Lelystad Air to Air: 123.450

EHLE Fokker Four (Archives)
Lelystad, Netherlands

Feed Status: UP
Listen in your browser - HTML5 player(in browser, HTML5)
Click here to listen with your own player(launches your MP3 player)

EHLE Flight Activity (Flightaware)

Listeners: 0 out of 1107 total

Lelystad Fokker Four: 123.525

EHLE Microlight Aircraft (Archives)
Lelystad, Netherlands

Feed Status: UP
Listen in your browser - HTML5 player(in browser, HTML5)
Click here to listen with your own player(launches your MP3 player)

EHLE Flight Activity (Flightaware)

Listeners: 0 out of 1107 total

Lelystad Microlight Aircraft: 123.825

EHLE Radio (Archives)
Lelystad, Netherlands

Feed Status: UP
Listen in your browser - HTML5 player(in browser, HTML5)
Click here to listen with your own player(launches your MP3 player)

EHLE Flight Activity (Flightaware)

Listeners: 0 out of 1107 total

Lelystad Radio: 123.675

EHMC/EHML Military/Radar (Archives)
Nieuw-Milligen, Netherlands

Feed Status: UP
Listen in your browser - HTML5 player(in browser, HTML5)
Click here to listen with your own player(launches your MP3 player)

EHMC Flight Activity (Flightaware)

Listeners: 1 out of 1107 total

AMCC: 234.000
Belga Radar: 129.325
Command Post: 313.550
Dutch Military Radar: 120.825
Dutch Military Radar: 125.925
Dutch Military Radar: 128.350
GCI: 363.100
Lippe Radar: 131.075
London Mil: 135.275
Meteo: 284.425

Military Mode-S Logs
REACH Flights Europe Mode-S Logs
NOTE: Due to receiver distance only aircraft can be heard

EHMC/EHML Military/Radar (Archives)
Nieuw-Milligen, Netherlands

Feed Status: UP
Listen in your browser - HTML5 player(in browser, HTML5)
Click here to listen with your own player(launches your MP3 player)

EHMC Flight Activity (Flightaware)

Listeners: 1 out of 1107 total

AMCC: 234.000
Belga Radar: 129.325
Command Post: 313.550
Dutch Military Radar: 120.825
Dutch Military Radar: 125.925
Dutch Military Radar: 128.350
GCI: 363.100
Lippe Radar: 131.075
London Mil: 135.275
Meteo: 284.425

Military Mode-S Logs
REACH Flights Europe Mode-S Logs
NOTE: Due to receiver distance only aircraft can be heard

EHMM CTAF (Archives)
Middenmeer, Netherlands

Feed Status: UP
Listen in your browser - HTML5 player(in browser, HTML5)
Click here to listen with your own player(launches your MP3 player)

EHMM Flight Activity (Flightaware)

Listeners: 0 out of 1107 total

Middenmeer CTAF: 123.425

EHRD Approach (Archives)
Rotterdam, Netherlands

Feed Status: UP
Listen in your browser - HTML5 player(in browser, HTML5)
Click here to listen with your own player(launches your MP3 player)

EHRD 222355Z AUTO 26003KT 230V290 4300 BR OVC018 08/07 Q1028 BECMG 4000

EHRD Flight Activity (Flightaware)

Listeners: 0 out of 1107 total

Rotterdam Approach: 124.535
Rotterdam Approach: 281.050

EHRD Clearance Delivery (Archives)
Rotterdam, Netherlands

Feed Status: UP
Listen in your browser - HTML5 player(in browser, HTML5)
Click here to listen with your own player(launches your MP3 player)

EHRD 222355Z AUTO 26003KT 230V290 4300 BR OVC018 08/07 Q1028 BECMG 4000

EHRD Flight Activity (Flightaware)

Listeners: 0 out of 1107 total

Rotterdam Del/Gnd: 122.180

EHRD Del/Twr (Archives)
Rotterdam, Netherlands

Feed Status: UP
Listen in your browser - HTML5 player(in browser, HTML5)
Click here to listen with your own player(launches your MP3 player)

EHRD 222355Z AUTO 26003KT 230V290 4300 BR OVC018 08/07 Q1028 BECMG 4000

EHRD Flight Activity (Flightaware)

Listeners: 0 out of 1107 total

Rotterdam Del/Gnd: 122.180
Rotterdam Tower: 118.205

EHRD Gnd/Twr/App (Archives)
Rotterdam, Netherlands

Feed Status: UP
Listen in your browser - HTML5 player(in browser, HTML5)
Click here to listen with your own player(launches your MP3 player)

EHRD 222355Z AUTO 26003KT 230V290 4300 BR OVC018 08/07 Q1028 BECMG 4000

EHRD Flight Activity (Flightaware)

Listeners: 0 out of 1107 total

Adam Info: 124.300
Regional Guard: 119.705
Rotterdam Approach: 127.025
Rotterdam Del/Gnd: 122.180
Rotterdam Tower: 118.205
SAR: 123.100
SAR: 282.800

EHRD Tower (Archives)
Rotterdam, Netherlands

Feed Status: UP
Listen in your browser - HTML5 player(in browser, HTML5)
Click here to listen with your own player(launches your MP3 player)

EHRD 222355Z AUTO 26003KT 230V290 4300 BR OVC018 08/07 Q1028 BECMG 4000

EHRD Flight Activity (Flightaware)

Listeners: 2 out of 1107 total

Rotterdam Tower: 118.205
Rotterdam Tower: 362.300

EHRD Twr/App
Rotterdam, Netherlands

Feed Status: DOWN
Offline since: 2019-03-22 23:45:02 UTC

EHRD 222355Z AUTO 26003KT 230V290 4300 BR OVC018 08/07 Q1028 BECMG 4000

Rotterdam Approach: 127.025
Rotterdam Tower: 118.205

EHRD ADS-B Logs

EHTX Gnd/Twr (Archives)
Texel, Netherlands

Feed Status: UP
Listen in your browser - HTML5 player(in browser, HTML5)
Click here to listen with your own player(launches your MP3 player)

EHTX Flight Activity (Flightaware)

Listeners: 0 out of 1107 total

Texel Radio (Ground/Tower): 119.300

EHVL CTAF/Range Control (Archives)
Vlieland, Netherlands

Feed Status: UP
Listen in your browser - HTML5 player(in browser, HTML5)
Click here to listen with your own player(launches your MP3 player)

EHVL 222355Z AUTO 23010KT 3600 BR OVC330 07/06 Q1026 YLO

EHVL Flight Activity (Flightaware)

Listeners: 1 out of 1107 total

Cornfield VHF (CTAF): 122.100
Range Controller (Primary): 279.000
Range Controller (Secondary): 369.200
Range Controller VHF: 138.075

EICK Approach/Departure (Archives)
Cork, Ireland

Feed Status: UP
Listen in your browser - HTML5 player(in browser, HTML5)
Click here to listen with your own player(launches your MP3 player)

EICK 222330Z 30004KT 9999 FEW025 BKN180 05/02 Q1030 NOSIG

EICK Flight Activity (Flightaware)

Listeners: 0 out of 1107 total

Cork Approach: 119.900

EICK Gnd/Twr/App/Dep (Archives)
Cork, Ireland

Feed Status: UP
Listen in your browser - HTML5 player(in browser, HTML5)
Click here to listen with your own player(launches your MP3 player)

EICK 222330Z 30004KT 9999 FEW025 BKN180 05/02 Q1030 NOSIG

EICK Flight Activity (Flightaware)

Listeners: 1 out of 1107 total

Cork Approach: 119.900
Cork Ground: 121.850
Cork Tower: 119.300

EICK Ground/Tower (Archives)
Cork, Ireland

Feed Status: UP
Listen in your browser - HTML5 player(in browser, HTML5)
Click here to listen with your own player(launches your MP3 player)

EICK 222330Z 30004KT 9999 FEW025 BKN180 05/02 Q1030 NOSIG

EICK Flight Activity (Flightaware)

Listeners: 0 out of 1107 total

Cork Ground: 121.850
Cork Tower: 119.300

EIDW Approach (Archives)
Dublin, Ireland

Feed Status: UP
Listen in your browser - HTML5 player(in browser, HTML5)
Click here to listen with your own player(launches your MP3 player)

EIDW 222330Z 27011KT 9999 FEW035 BKN220 05/01 Q1029 NOSIG

EIDW Flight Activity (Flightaware)

Listeners: 0 out of 1107 total

Dublin Approach: 121.100

EIDW Approach (Final) (Archives)
Dublin, Ireland

Feed Status: UP
Listen in your browser - HTML5 player(in browser, HTML5)
Click here to listen with your own player(launches your MP3 player)

EIDW 222330Z 27011KT 9999 FEW035 BKN220 05/01 Q1029 NOSIG

EIDW Flight Activity (Flightaware)

Listeners: 0 out of 1107 total

Dublin Approach (Final): 119.925

EIDW Clearance Delivery (Archives)
Dublin, Ireland

Feed Status: UP
Listen in your browser - HTML5 player(in browser, HTML5)
Click here to listen with your own player(launches your MP3 player)

EIDW 222330Z 27011KT 9999 FEW035 BKN220 05/01 Q1029 NOSIG

EIDW Flight Activity (Flightaware)

Listeners: 0 out of 1107 total

Dublin Clearance Delivery: 121.875

EIDW Del/Gnd/Twr/App/Center (Archives)
Dublin, Ireland

Feed Status: UP
Listen in your browser - HTML5 player(in browser, HTML5)
Click here to listen with your own player(launches your MP3 player)

EIDW 222330Z 27011KT 9999 FEW035 BKN220 05/01 Q1029 NOSIG

EIDW Flight Activity (Flightaware)

Listeners: 5 out of 1107 total

Dublin Approach: 121.100
Dublin Approach (backup): 119.550
Dublin Centre North: 129.175
Dublin Centre South: 126.250
Dublin Clearance Delivery: 121.875
Dublin FIS: 118.500
Dublin Ground: 121.800
Dublin Tower: 118.600

EIDW Ground (Archives)
Dublin, Ireland

Feed Status: UP
Listen in your browser - HTML5 player(in browser, HTML5)
Click here to listen with your own player(launches your MP3 player)

EIDW 222330Z 27011KT 9999 FEW035 BKN220 05/01 Q1029 NOSIG

EIDW Flight Activity (Flightaware)

Listeners: 1 out of 1107 total

Dublin Ground: 121.800

EIDW Ground (North) (Archives)
Dublin, Ireland

Feed Status: UP
Listen in your browser - HTML5 player(in browser, HTML5)
Click here to listen with your own player(launches your MP3 player)

EIDW 222330Z 27011KT 9999 FEW035 BKN220 05/01 Q1029 NOSIG

EIDW Flight Activity (Flightaware)

Listeners: 0 out of 1107 total

Dublin Ground (North): 118.750

EIDW Ops
Dublin, Ireland

Feed Status: DOWN
Offline since: 2019-03-07 20:54:03 UTC

EIDW 222330Z 27011KT 9999 FEW035 BKN220 05/01 Q1029 NOSIG

Misc:

EIDW Tower (Archives)
Dublin, Ireland

Feed Status: UP
Listen in your browser - HTML5 player(in browser, HTML5)
Click here to listen with your own player(launches your MP3 player)

EIDW 222330Z 27011KT 9999 FEW035 BKN220 05/01 Q1029 NOSIG

EIDW Flight Activity (Flightaware)

Listeners: 1 out of 1107 total

Dublin Tower: 118.600

EIKN Gnd/Twr/App (Archives)
Charlestown, Ireland

Feed Status: UP
Listen in your browser - HTML5 player(in browser, HTML5)
Click here to listen with your own player(launches your MP3 player)

EIKN 222000Z 26006KT 9999 FEW018 SCT280 04/03 Q1026 NOSIG

EIKN Flight Activity (Flightaware)

Listeners: 0 out of 1107 total

Connaught Ground: 121.900
Connaught Tower: 130.700
Shannon Low Level: 119.075

Special Note: Sponsored by CAC

EINN Approach/Departure
Shannon, Ireland

Feed Status: DOWN
Offline since: 2019-03-11 16:32:03 UTC

EINN 222330Z 30001KT 9999 FEW040 BKN200 05/02 Q1031 NOSIG

Shannon Approach Radar: 121.400
Shannon Low: 124.700

EINN Gnd/Twr/Ops
Shannon, Ireland

Feed Status: DOWN
Offline since: 2019-03-11 16:32:03 UTC

EINN 222330Z 30001KT 9999 FEW040 BKN200 05/02 Q1031 NOSIG

Aer Lingus Ops: 131.500
Service Air Ops: 131.450
Shannon Ground: 121.800
Shannon Tower: 118.700
Sig Ops (Pre-Clearance): 131.590

EINN Shannon Control High #1 (Archives)
Shannon, Ireland

Feed Status: UP
Listen in your browser - HTML5 player(in browser, HTML5)
Click here to listen with your own player(launches your MP3 player)

EINN 222330Z 30001KT 9999 FEW040 BKN200 05/02 Q1031 NOSIG

EINN Flight Activity (Flightaware)

Listeners: 3 out of 1107 total

Shannon Clearance (Oceanic only): 121.700
Shannon Control: 134.630
Shannon Control: 134.260
Shannon Control: 119.075
Shannon Control (BABAN/DEVOL Sector): 132.150
Shannon Control (Cork Sector): 131.150
Shannon Control (Shannon Sector): 134.280
Shannon Control (SOTA Sector): 135.600
Shannon Control NOTA: 125.875
Shannon Control NOTA: 122.980
Shannon High Level (SOTA Sector): 135.230
Shanwick Radio: 127.650
Track Information: 133.800

EINN Twr/App #1 (Archives)
Shannon, Ireland

Feed Status: UP
Listen in your browser - HTML5 player(in browser, HTML5)
Click here to listen with your own player(launches your MP3 player)

EINN 222330Z 30001KT 9999 FEW040 BKN200 05/02 Q1031 NOSIG

EINN Flight Activity (Flightaware)

Listeners: 1 out of 1107 total

Aer Lingus Ops: 131.500
Service Air Ops: 131.450
Shannon Approach Radar: 121.400
Shannon Control: Misc
Shannon Ground: 121.800
Shannon Tower: 118.700
Sig Ops (Pre-Clearance): 131.590

ENAT Twr/App/Control (Archives)
Alta, Norway

Feed Status: UP
Listen in your browser - HTML5 player(in browser, HTML5)
Click here to listen with your own player(launches your MP3 player)

ENAT 222350Z AUTO 22019KT 9999 UP ///032/// 02/M04 Q0992 RMK WIND 700FT 20022G32KT

ENAT Flight Activity (Flightaware)

Listeners: 0 out of 1107 total

Alta Tower (to boat, Harbour Channel 12): 156.600
Alta Tower (to vehicle): 462.400
Alta Tower/Approach: 120.400
Norway Control: 126.700

ENBO Approach
Bodo, Norway

Feed Status: DOWN
Offline since: 2019-03-10 10:55:02 UTC

ENBO 222350Z 17014KT 9999 -SHRA FEW012 BKN025 05/02 Q0994

Bodo Approach: 119.700

ENBO Tower
Bodo, Norway

Feed Status: DOWN
Offline since: 2019-03-10 10:55:02 UTC

ENBO 222350Z 17014KT 9999 -SHRA FEW012 BKN025 05/02 Q0994

Bodo Tower: 118.100

ENCN Tower/Approach (Archives)
Kristiansand, Norway

Feed Status: UP
Listen in your browser - HTML5 player(in browser, HTML5)
Click here to listen with your own player(launches your MP3 player)

ENCN 222350Z AUTO 22014KT 8000 DZ OVC007/// 07/07 Q1016 REDZ

ENCN Flight Activity (Flightaware)

Listeners: 0 out of 1107 total

Kjevik Tower: 118.100
Kjevik Tower/Approach: 119.950

ENEV Twr/App/ACC (Archives)
Evenes, Norway

Feed Status: UP
Listen in your browser - HTML5 player(in browser, HTML5)
Click here to listen with your own player(launches your MP3 player)

ENEV 222350Z AUTO 17007KT 9999 -DZ ///036/// 04/02 Q0992 RMK WIND 1400FT 21024KT

ENEV Flight Activity (Flightaware)

Listeners: 0 out of 1107 total

Evenes Approach: 120.100
Evenes Tower: 118.000
Norway ACC (Bodo Sector 25): 126.450

ENGM Approach (Archives)
Oslo, Norway

Feed Status: UP
Listen in your browser - HTML5 player(in browser, HTML5)
Click here to listen with your own player(launches your MP3 player)

ENGM 222350Z 19013KT 5000 BR OVC002 03/03 Q1011

ENGM Flight Activity (Flightaware)

Listeners: 0 out of 1107 total

Oslo Approach: 118.475
Oslo Approach: 120.450

ENKJ RDO (Archives)
Kjeller, Norway

Feed Status: UP
Listen in your browser - HTML5 player(in browser, HTML5)
Click here to listen with your own player(launches your MP3 player)

ENKJ Flight Activity (Flightaware)

Listeners: 0 out of 1107 total

Kjeller RDO: 119.100

ENLI CTAF (Archives)
Farsund, Norway

Feed Status: UP
Listen in your browser - HTML5 player(in browser, HTML5)
Click here to listen with your own player(launches your MP3 player)

ENLI Flight Activity (Flightaware)

Listeners: 0 out of 1107 total

Lista Traffic/Lista Radio: 126.450

ENRK CTAF (Archives)
Astorp, Norway

Feed Status: UP
Listen in your browser - HTML5 player(in browser, HTML5)
Click here to listen with your own player(launches your MP3 player)

ENRK Flight Activity (Flightaware)

Listeners: 0 out of 1107 total

Rakkestad CTAF: 122.950

ENOR Sector 8 (Archives)
Moss, Norway

Feed Status: UP
Listen in your browser - HTML5 player(in browser, HTML5)
Click here to listen with your own player(launches your MP3 player)

ENOR Flight Activity (Flightaware)

Listeners: 0 out of 1107 total

Norway Center (FIR) Sector 8: 118.875

ENRY Tower (Archives)
Moss, Norway

Feed Status: UP
Listen in your browser - HTML5 player(in browser, HTML5)
Click here to listen with your own player(launches your MP3 player)

ENRY 222350Z AUTO 20018KT 1700NDV BR OVC001/// 06/05 Q1015

ENRY Flight Activity (Flightaware)

Listeners: 0 out of 1107 total

Rygge Tower: 119.500

ENSO AFIS (Archives)
Stord, Norway

Feed Status: UP
Listen in your browser - HTML5 player(in browser, HTML5)
Click here to listen with your own player(launches your MP3 player)

ENSO 221920Z 18016KT 140V210 6000 RA FEW002 BKN005 07/06 Q1013

ENSO Flight Activity (Flightaware)

Listeners: 0 out of 1107 total

Stord AFIS: 120.200

Feed sponsored by:

ENTO Tower/App (Archives)
Sandefjord, Norway

Feed Status: UP
Listen in your browser - HTML5 player(in browser, HTML5)
Click here to listen with your own player(launches your MP3 player)

ENTO 222350Z AUTO 21020KT 0800 R18/P2000N R36/P2000N FG VV004 06/06 Q1014

ENTO Flight Activity (Flightaware)

Listeners: 1 out of 1107 total

ENJB Tonsberg Airport - Jarlsberg - CTAF: 122.300
Farris Approach (TCA): 134.050
Sandefjord Tower: 118.650

ENVA Gnd/Twr/App (Archives)
Trondheim, Norway

Feed Status: UP
Listen in your browser - HTML5 player(in browser, HTML5)
Click here to listen with your own player(launches your MP3 player)

ENVA 222350Z 21004KT 8000 RA OVC020CB 05/03 Q1002 RMK WIND 670FT 29008KT

ENVA Flight Activity (Flightaware)

Listeners: 0 out of 1107 total

Trondheim Approach: 118.600
Trondheim Ground: 121.600
Trondheim Tower: 119.400

ENZV Gnd/Twr/App (Archives)
Stavanger, Norway

Feed Status: UP
Listen in your browser - HTML5 player(in browser, HTML5)
Click here to listen with your own player(launches your MP3 player)

ENZV 222350Z 23011KT 9999 BKN053 07/06 Q1016

ENZV Flight Activity (Flightaware)

Listeners: 0 out of 1107 total

Sola Approach/Departure: 119.600
Sola Ground: 121.750
Sola Tower: 118.350

EPGD Tower/Approach (Archives)
Gdansk, Poland

Feed Status: UP
Listen in your browser - HTML5 player(in browser, HTML5)
Click here to listen with your own player(launches your MP3 player)

EPGD 222330Z 17006KT CAVOK 04/M03 Q1029

EPGD Flight Activity (Flightaware)

Listeners: 0 out of 1107 total

Gdansk Approach: 127.275
Gdansk Tower: 118.100

EPKK Tower/App (Archives)
Krakow, Poland

Feed Status: UP
Listen in your browser - HTML5 player(in browser, HTML5)
Click here to listen with your own player(launches your MP3 player)

EPKK 222330Z VRB02KT 3500 BR NSC 05/04 Q1030

EPKK Flight Activity (Flightaware)

Listeners: 0 out of 1107 total

Krakow Approach: 121.075
Krakow Approach: 123.258
Krakow Tower: 123.250

EPKR CTAF (Archives)
Krosno, Poland

Feed Status: UP
Listen in your browser - HTML5 player(in browser, HTML5)
Click here to listen with your own player(launches your MP3 player)

EPKR Flight Activity (Flightaware)

Listeners: 0 out of 1107 total

Krosno CTAF: 122.400

EPKT Del/Twr/App (Archives)
Katowice, Poland

Feed Status: UP
Listen in your browser - HTML5 player(in browser, HTML5)
Click here to listen with your own player(launches your MP3 player)

EPKT 222330Z 07003KT 050V160 0050 R27/0450N FG SCT000 05/05 Q1030

EPKT Flight Activity (Flightaware)

Listeners: 0 out of 1107 total

Katowice Delivery: 121.800
Katowice Tower: 129.250
Krakow Approach: 135.400
Krakow Approach: 121.075

EPKT Delivery/Approach (Archives)
Katowice, Poland

Feed Status: UP
Listen in your browser - HTML5 player(in browser, HTML5)
Click here to listen with your own player(launches your MP3 player)

EPKT 222330Z 07003KT 050V160 0050 R27/0450N FG SCT000 05/05 Q1030

EPKT Flight Activity (Flightaware)

Listeners: 0 out of 1107 total

Katowice Delivery: 121.800
Krakow Approach: 121.075

EPKT Tower/Approach (Archives)
Katowice, Poland

Feed Status: UP
Listen in your browser - HTML5 player(in browser, HTML5)
Click here to listen with your own player(launches your MP3 player)

EPKT 222330Z 07003KT 050V160 0050 R27/0450N FG SCT000 05/05 Q1030

EPKT Flight Activity (Flightaware)

Listeners: 0 out of 1107 total

Katowice Tower: 129.250
Krakow Approach: 135.400

EPLL Tower (Archives)
Lodz, Poland

Feed Status: UP
Listen in your browser - HTML5 player(in browser, HTML5)
Click here to listen with your own player(launches your MP3 player)

EPLL 222330Z VRB01KT 0100 R25/0225N FG VV001 03/03 Q1031

EPLL Flight Activity (Flightaware)

Listeners: 0 out of 1107 total

Lodz Tower: 124.230

EPPO Twr/App/FIS
Poznan, Poland

Feed Status: DOWN
Offline since: 2019-03-21 08:59:02 UTC

EPPO 222330Z 16006KT 9999 BKN014 09/07 Q1030

Poznan Approach: 129.025
Poznan Approach: 127.225
Poznan FIS: 126.300
Poznan Tower: 119.975

Sponsored by: GearUp!

EPRZ Del/Twr/EPWW Radar (Archives)
Jasionka, Poland

Feed Status: UP
Listen in your browser - HTML5 player(in browser, HTML5)
Click here to listen with your own player(launches your MP3 player)

EPRZ 222330Z 26003KT 250V320 0200 R27/0300N FG NSC 02/01 Q1030

EPRZ Flight Activity (Flightaware)

Listeners: 11 out of 1107 total

EPWW Radar: 134.175
EPWW Radar: 120.950
Rzeszow Delivery: 121.800
Rzeszow Tower: 126.800

EPWA Approach #1 (Archives)
Warsaw, Poland

Feed Status: UP
Listen in your browser - HTML5 player(in browser, HTML5)
Click here to listen with your own player(launches your MP3 player)

EPWA 222330Z 10002KT CAVOK 03/M04 Q1031 NOSIG

EPWA Flight Activity (Flightaware)

Listeners: 7 out of 1107 total

Warsaw Approach: 128.800

EPWA Approach #2 (Archives)
Warsaw, Poland

Feed Status: UP
Listen in your browser - HTML5 player(in browser, HTML5)
Click here to listen with your own player(launches your MP3 player)

EPWA 222330Z 10002KT CAVOK 03/M04 Q1031 NOSIG

EPWA Flight Activity (Flightaware)

Listeners: 0 out of 1107 total

Warsaw Approach: 125.050

EPWA Clearance Delivery (Archives)
Warsaw, Poland

Feed Status: UP
Listen in your browser - HTML5 player(in browser, HTML5)
Click here to listen with your own player(launches your MP3 player)

EPWA 222330Z 10002KT CAVOK 03/M04 Q1031 NOSIG

EPWA Flight Activity (Flightaware)

Listeners: 0 out of 1107 total

Warsaw Clearance Delivery: 121.600

EPWA Director (Archives)
Warsaw, Poland

Feed Status: UP
Listen in your browser - HTML5 player(in browser, HTML5)
Click here to listen with your own player(launches your MP3 player)

EPWA 222330Z 10002KT CAVOK 03/M04 Q1031 NOSIG

EPWA Flight Activity (Flightaware)

Listeners: 0 out of 1107 total

Warsaw Director: 129.375

EPWA Ground (Archives)
Warsaw, Poland

Feed Status: UP
Listen in your browser - HTML5 player(in browser, HTML5)
Click here to listen with your own player(launches your MP3 player)

EPWA 222330Z 10002KT CAVOK 03/M04 Q1031 NOSIG

EPWA Flight Activity (Flightaware)

Listeners: 2 out of 1107 total

Warsaw Ground: 121.900

EPWA Tower #1 (Archives)
Warsaw, Poland

Feed Status: UP
Listen in your browser - HTML5 player(in browser, HTML5)
Click here to listen with your own player(launches your MP3 player)

EPWA 222330Z 10002KT CAVOK 03/M04 Q1031 NOSIG

EPWA Flight Activity (Flightaware)

Listeners: 2 out of 1107 total

Warsaw Tower: 118.300

EPWA Tower #2 (Archives)
Warsaw, Poland

Feed Status: UP
Listen in your browser - HTML5 player(in browser, HTML5)
Click here to listen with your own player(launches your MP3 player)

EPWA 222330Z 10002KT CAVOK 03/M04 Q1031 NOSIG

EPWA Flight Activity (Flightaware)

Listeners: 2 out of 1107 total

Warsaw Tower: 118.300

Audio provided by: datahouse.pl

EPWR Tower (Archives)
Wroclaw, Poland

Feed Status: UP
Listen in your browser - HTML5 player(in browser, HTML5)
Click here to listen with your own player(launches your MP3 player)

EPWR 222330Z 13005KT 0600 R29/1400U BCFG NSC 04/03 Q1030

EPWR Flight Activity (Flightaware)

Listeners: 0 out of 1107 total

Wroclaw Tower: 120.250

EPWR Twr/App (Archives)
Wroclaw, Poland

Feed Status: UP
Listen in your browser - HTML5 player(in browser, HTML5)
Click here to listen with your own player(launches your MP3 player)

EPPO 222330Z 16006KT 9999 BKN014 09/07 Q1030

EPPO Flight Activity (Flightaware)

Listeners: 1 out of 1107 total

Poznan Approach (South): 127.225

EPWS AFIS
Wroclaw, Poland

Feed Status: DOWN
Offline since: 2019-03-19 22:34:02 UTC

Szymanow Radio AFIS: 122.800

EPRZ Del/Twr/EPWW Radar (Archives)
Jasionka, Poland

Feed Status: UP
Listen in your browser - HTML5 player(in browser, HTML5)
Click here to listen with your own player(launches your MP3 player)

EPRZ 222330Z 26003KT 250V320 0200 R27/0300N FG NSC 02/01 Q1030

EPRZ Flight Activity (Flightaware)

Listeners: 11 out of 1107 total

EPWW Radar: 134.175
EPWW Radar: 120.950
Rzeszow Delivery: 121.800
Rzeszow Tower: 126.800

ESGG Gnd/Twr/Control (Archives)
Gothenburg, Sweden

Feed Status: UP
Listen in your browser - HTML5 player(in browser, HTML5)
Click here to listen with your own player(launches your MP3 player)

ESGG 222350Z 21018KT 0350 R03/1000U R21/1300D FG VV004 06/05 Q1021 R21/29//95

ESGG Flight Activity (Flightaware)

Listeners: 1 out of 1107 total

Emergency/Guard: 121.500
Goteborg Arrival: 120.125
Goteborg Control: 124.675
Goteborg Control: 124.200
Landvetter Ground: 121.900
Landvetter Tower: 118.605

ESMQ Tower (Archives)
Kalmar, Sweden

Feed Status: UP
Listen in your browser - HTML5 player(in browser, HTML5)
Click here to listen with your own player(launches your MP3 player)

ESMQ 222350Z AUTO 20008KT 9999 OVC006/// 06/05 Q1025

ESMQ Flight Activity (Flightaware)

Listeners: 0 out of 1107 total

Kalmar Tower: 130.805

ESPA Twr/Control (Archives)
Lulea, Sweden

Feed Status: UP
Listen in your browser - HTML5 player(in browser, HTML5)
Click here to listen with your own player(launches your MP3 player)

ESPA 222350Z 19014KT 9999 -SG BKN043 01/M00 Q1004

ESPA Flight Activity (Flightaware)

Listeners: 0 out of 1107 total

Emergency/Guard: 121.500
Kallax Control: 125.450
Kallax Tower: 128.200
Sweden Control North: 131.050

ESSG Misc (Archives)
Ludvika, Sweden

Feed Status: UP
Listen in your browser - HTML5 player(in browser, HTML5)
Click here to listen with your own player(launches your MP3 player)

ESSG Flight Activity (Flightaware)

Listeners: 0 out of 1107 total

Avesta, Gagnef, Siljansnas: 123.550
Borlange Tower: 127.300
Dala-Jarna: 123.350
Emergency/Guard: 121.500
Karlstad: 119.450
Koping, Arboga, Borberg: 123.150
Ludvika CTAF: 122.100
Mora: 129.850
Orebro: 120.275
Orsa: 123.400
Soaring Freq: 123.500
Sweden Control: 131.125
Sweden Control: 129.175
Sweden Control: 118.200
Sweden Control: 132.150

ESSL Twr/App/Control (Archives)
Linkoping, Sweden

Feed Status: UP
Listen in your browser - HTML5 player(in browser, HTML5)
Click here to listen with your own player(launches your MP3 player)

ESSL 222350Z AUTO 23010KT 200V260 9999 OVC014/// 07/05 Q1020

ESSL Flight Activity (Flightaware)

Listeners: 0 out of 1107 total

Emergency/Guard: 121.500
Linkoping Tower: 118.800
Linkoping Tower (Secondary): 123.400
Ostgota Control: 127.350
Ostgota Control: 126.400
Ostgota Control: 135.850
Ostgota Control: 132.950
Ostgota Control: 128.700
Ostgota Control (Malmen Sector): 133.100
Ostgota Control/Sweden Control: 118.400

ESVQ CTAF (Archives)
Koping, Sweden

Feed Status: UP
Listen in your browser - HTML5 player(in browser, HTML5)
Click here to listen with your own player(launches your MP3 player)

ESVQ Flight Activity (Flightaware)

Listeners: 0 out of 1107 total

Koping CTAF: 123.150

EVRA Approach (Archives)
Riga, Latvia

Feed Status: UP
Listen in your browser - HTML5 player(in browser, HTML5)
Click here to listen with your own player(launches your MP3 player)

EVRA 222350Z 20003KT CAVOK M03/M04 Q1029 R36/190095 NOSIG

EVRA Flight Activity (Flightaware)

Listeners: 0 out of 1107 total

Riga Approach: 129.925

EVRA CTAF (Archives)
Riga, Latvia

Feed Status: UP
Listen in your browser - HTML5 player(in browser, HTML5)
Click here to listen with your own player(launches your MP3 player)

EVRA 222350Z 20003KT CAVOK M03/M04 Q1029 R36/190095 NOSIG

EVRA Flight Activity (Flightaware)

Listeners: 0 out of 1107 total

Riga Approach (evenings): 134.850
Riga CTAF: 123.950

EVRA FIC (Archives)
Riga, Latvia

Feed Status: UP
Listen in your browser - HTML5 player(in browser, HTML5)
Click here to listen with your own player(launches your MP3 player)

EVRA 222350Z 20003KT CAVOK M03/M04 Q1029 R36/190095 NOSIG

EVRA Flight Activity (Flightaware)

Listeners: 0 out of 1107 total

Riga FIC: 120.225

EVRA Tower/Guard (Archives)
Riga, Latvia

Feed Status: UP
Listen in your browser - HTML5 player(in browser, HTML5)
Click here to listen with your own player(launches your MP3 player)

EVRA 222350Z 20003KT CAVOK M03/M04 Q1029 R36/190095 NOSIG

EVRA Flight Activity (Flightaware)

Listeners: 0 out of 1107 total

Emergency/Guard: 121.500
Riga Tower: 118.100

EYKA Gnd/Twr/FIS
Kaunas, Lithuania

Feed Status: DOWN
Offline since: 2019-01-21 19:46:02 UTC

EYKA 222350Z AUTO 24001KT 9999 NCD M01/M06 Q1031

EYKS (ALEKSOTAS) Info: 135.500
Kaunas Approach: 124.200
Kaunas Info: 124.600
Kaunas Tower: 118.500

EYVI Twr/App/Misc (Archives)
Vilnius, Lithuania

Feed Status: UP
Listen in your browser - HTML5 player(in browser, HTML5)
Click here to listen with your own player(launches your MP3 player)

EYVI 222350Z 34006KT CAVOK 00/M08 Q1030 R01/0///95 NOSIG

EYVI Flight Activity (Flightaware)

Listeners: 0 out of 1107 total

Emergency / GUARD: 121.500
FlyLAL, AirBaltic transit services: 131.900
FlyLAL, AirBaltic transit services: 131.600
FlyLAL, AirBaltic transit services: 131.500
Kaunas Approach (EYKA): 124.200
Vilnius Approach: 120.700
Vilnius Control: 132.275
Vilnius Control: 133.425
Vilnius Control: 133.300
Vilnius FIS: 123.850
Vilnius Tower: 118.200
Zokniai A/G (mil): 122.775

EYVP CTAF (Archives)
Paluknys, Lithuania

Feed Status: UP
Listen in your browser - HTML5 player(in browser, HTML5)
Click here to listen with your own player(launches your MP3 player)

EYVP Flight Activity (Flightaware)

Listeners: 0 out of 1107 total

EYVP Paluknis CTAF: 119.100

LATI Twr/App/ACC (Archives)
Tirana, Albania

Feed Status: UP
Listen in your browser - HTML5 player(in browser, HTML5)
Click here to listen with your own player(launches your MP3 player)

LATI 222350Z 16003KT 090V210 8000 NSC 08/04 Q1022 NOSIG

LATI Flight Activity (Flightaware)

Listeners: 0 out of 1107 total

Tirana Approach/Departure: 133.150
Tirana Approach/Departure: 131.075
Tirana Tower: 122.500
Tirana Tower: 123.500

LBBG Twr/App (Archives)
Burgas, Bulgaria

Feed Status: UP
Listen in your browser - HTML5 player(in browser, HTML5)
Click here to listen with your own player(launches your MP3 player)

LBBG 222330Z VRB02KT CAVOK 05/02 Q1025 NOSIG

LBBG Flight Activity (Flightaware)

Listeners: 0 out of 1107 total

Burgas Approach: 125.100
Burgas Tower: 118.000

LBSF Sofia Control East (Archives)
Sofia, Bulgaria

Feed Status: UP
Listen in your browser - HTML5 player(in browser, HTML5)
Click here to listen with your own player(launches your MP3 player)

LBSF 222330Z 00000KT CAVOK 04/M02 Q1026 NOSIG

LBSF Flight Activity (Flightaware)

Listeners: 5 out of 1107 total

Sofia Control (East/Middle Sector): 129.100
Sofia Control (Varna Sector): 134.700

LBSF Twr/App #1 (Archives)
Sofia, Bulgaria

Feed Status: UP
Listen in your browser - HTML5 player(in browser, HTML5)
Click here to listen with your own player(launches your MP3 player)

LBSF 222330Z 00000KT CAVOK 04/M02 Q1026 NOSIG

LBSF Flight Activity (Flightaware)

Listeners: 1 out of 1107 total

Sofia Approach: 123.700
Sofia Approach: 129.900
Sofia Tower: 118.100
Sofia Tower: 120.200

LBSF Twr/App #2 (Archives)
Sofia, Bulgaria

Feed Status: UP
Listen in your browser - HTML5 player(in browser, HTML5)
Click here to listen with your own player(launches your MP3 player)

LBSF 222330Z 00000KT CAVOK 04/M02 Q1026 NOSIG

LBSF Flight Activity (Flightaware)

Listeners: 0 out of 1107 total

Sofia Approach: 123.700
Sofia Tower: 118.100

LBWN Tower/Approach (Archives)
Varna, Bulgaria

Feed Status: UP
Listen in your browser - HTML5 player(in browser, HTML5)
Click here to listen with your own player(launches your MP3 player)

LBWN 222330Z VRB02KT CAVOK 08/02 Q1025 NOSIG

LBWN Flight Activity (Flightaware)

Listeners: 0 out of 1107 total

Varna Approach: 121.000
Varna Tower: 119.500

Bordeaux Control (Archives)
Bordeaux, France

Feed Status: UP
Listen in your browser - HTML5 player(in browser, HTML5)
Click here to listen with your own player(launches your MP3 player)

LFBD 222330Z AUTO 00000KT CAVOK 08/04 Q1028 NOSIG

LFBD Flight Activity (Flightaware)

Listeners: 3 out of 1107 total

Air to Air: 123.450
Bordeaux Control BN FL<300: 127.675
Bordeaux Control L3 FL>300: 134.250
Bordeaux Control R2 FL>300: 133.575
Emergency/Guard: 121.500

NOTE: In case of garbled sound, please refresh the player.

LFBU/LFBL Tower
Limoges, France

Feed Status: DOWN
Offline since: 2018-11-19 20:05:05 UTC

LFBU 222330Z AUTO 07003KT CAVOK 10/01 Q1028

LFBL Limoges Tower: 124.055
LFBU Angouleme Tower: 123.150
Medoc: 124.325

Bordeaux Control (Archives)
Angouleme, France

Feed Status: UP
Listen in your browser - HTML5 player(in browser, HTML5)
Click here to listen with your own player(launches your MP3 player)

LFBD 222330Z AUTO 00000KT CAVOK 08/04 Q1028 NOSIG

LFBD Flight Activity (Flightaware)

Listeners: 3 out of 1107 total

Air to Air: 123.450
Bordeaux Control BN FL<300: 127.675
Bordeaux Control L3 FL>300: 134.250
Bordeaux Control R2 FL>300: 133.575
Emergency/Guard: 121.500

NOTE: In case of garbled sound, please refresh the player.

LFBZ Tower (Archives)
Biarritz, France

Feed Status: UP
Listen in your browser - HTML5 player(in browser, HTML5)
Click here to listen with your own player(launches your MP3 player)

LFBZ 222330Z AUTO 16004KT CAVOK 11/04 Q1027 NOSIG

LFBZ Flight Activity (Flightaware)

Listeners: 0 out of 1107 total


LFLL Tower (Archives)
Lyon, France

Feed Status: UP
Listen in your browser - HTML5 player(in browser, HTML5)
Click here to listen with your own player(launches your MP3 player)

LFLL 222330Z 27002KT CAVOK 09/01 Q1027 NOSIG

LFLL Flight Activity (Flightaware)

Listeners: 0 out of 1107 total

Lyon Tower: 120.450

Lyon FIS (Archives)
Lyon, France

Feed Status: UP
Listen in your browser - HTML5 player(in browser, HTML5)
Click here to listen with your own player(launches your MP3 player)

LFLL 222330Z 27002KT CAVOK 09/01 Q1027 NOSIG

LFLL Flight Activity (Flightaware)

Listeners: 0 out of 1107 total

Lyon FIS: 135.200

LFLP Twr/LFLB App
Annecy, France

Feed Status: DOWN
Offline since: 2019-03-20 12:49:02 UTC

LFLP 222330Z AUTO 03004KT CAVOK 05/00 Q1028

Annecy Tower: 118.200
Chambery Approach: 121.200
Chambery Info: 123.700

NOTE: Reception might be deteriorated due to terrain surrounding feed

LFLY Tower (Archives)
Bron, France

Feed Status: UP
Listen in your browser - HTML5 player(in browser, HTML5)
Click here to listen with your own player(launches your MP3 player)

LFLY 222330Z AUTO 20003KT CAVOK 07/02 Q1027 NOSIG

LFLY Flight Activity (Flightaware)

Listeners: 0 out of 1107 total

Lyon-Bron Tower: 118.100

Lyon FIS (Archives)
Bron, France

Feed Status: UP
Listen in your browser - HTML5 player(in browser, HTML5)
Click here to listen with your own player(launches your MP3 player)

LFLL 222330Z 27002KT CAVOK 09/01 Q1027 NOSIG

LFLL Flight Activity (Flightaware)

Listeners: 0 out of 1107 total

Lyon FIS: 135.200

LFMD Ground/Tower (Archives)
Cannes, France

Feed Status: UP
Listen in your browser - HTML5 player(in browser, HTML5)
Click here to listen with your own player(launches your MP3 player)

LFMD 222330Z AUTO VRB02KT CAVOK 09/M00 Q1025

LFMD Flight Activity (Flightaware)

Listeners: 0 out of 1107 total

Cannes Ground: 121.800
Cannes Tower: 118.625

LFMN Approach (Archives)
Nice, France

Feed Status: UP
Listen in your browser - HTML5 player(in browser, HTML5)
Click here to listen with your own player(launches your MP3 player)

LFMN 222330Z 34007KT CAVOK 13/M03 Q1025 NOSIG

LFMN Flight Activity (Flightaware)

Listeners: 1 out of 1107 total

Nice Approach: 124.175

LFMN Control (High) (Archives)
Nice, France

Feed Status: UP
Listen in your browser - HTML5 player(in browser, HTML5)
Click here to listen with your own player(launches your MP3 player)

LFMN 222330Z 34007KT CAVOK 13/M03 Q1025 NOSIG

LFMN Flight Activity (Flightaware)

Listeners: 0 out of 1107 total

Marseille Control Sector K1 (FL245-FL305): 126.780

LFMN FIS/Approach (Archives)
Nice, France

Feed Status: UP
Listen in your browser - HTML5 player(in browser, HTML5)
Click here to listen with your own player(launches your MP3 player)

LFMN 222330Z 34007KT CAVOK 13/M03 Q1025 NOSIG

LFMN Flight Activity (Flightaware)

Listeners: 0 out of 1107 total

Nice FIS/Approach (TMA4 NICE 2500ft - FL115): 120.850

LFMN Ground/Tower (Archives)
Nice, France

Feed Status: UP
Listen in your browser - HTML5 player(in browser, HTML5)
Click here to listen with your own player(launches your MP3 player)

LFMN 222330Z 34007KT CAVOK 13/M03 Q1025 NOSIG

LFMN Flight Activity (Flightaware)

Listeners: 1 out of 1107 total

Nice Ground: 121.700
Nice Tower: 118.700

LFPO Approach (Archives)
Paris, France

Feed Status: UP
Listen in your browser - HTML5 player(in browser, HTML5)
Click here to listen with your own player(launches your MP3 player)

LFPO 222330Z 27002KT CAVOK 06/03 Q1028 NOSIG

LFPO Flight Activity (Flightaware)

Listeners: 0 out of 1107 total

Orly Approach: 124.450
Orly Approach: 118.850
Orly Approach: 120.850
Orly Approach: 123.875

LFPO Departure (Archives)
Paris, France

Feed Status: UP
Listen in your browser - HTML5 player(in browser, HTML5)
Click here to listen with your own player(launches your MP3 player)

LFPO 222330Z 27002KT CAVOK 06/03 Q1028 NOSIG

LFPO Flight Activity (Flightaware)

Listeners: 0 out of 1107 total

Orly Departure: 127.750

LFPO Tower (Archives)
Paris, France

Feed Status: UP
Listen in your browser - HTML5 player(in browser, HTML5)
Click here to listen with your own player(launches your MP3 player)

LFPO 222330Z 27002KT CAVOK 06/03 Q1028 NOSIG

LFPO Flight Activity (Flightaware)

Listeners: 0 out of 1107 total

Orly Tower: 120.500
Orly Tower: 118.700

LFSB Tower (Archives)
Basel, Switzerland

Feed Status: UP
Listen in your browser - HTML5 player(in browser, HTML5)
Click here to listen with your own player(launches your MP3 player)

LFSB 222330Z AUTO 20003KT CAVOK 05/02 Q1028 NOSIG

LFSB Flight Activity (Flightaware)

Listeners: 0 out of 1107 total

Mulhouse Tower: 118.300

LFST Approach #1 (Archives)
Strasbourg, France

Feed Status: UP
Listen in your browser - HTML5 player(in browser, HTML5)
Click here to listen with your own player(launches your MP3 player)

LFST 222330Z AUTO 17002KT CAVOK 04/01 Q1027 NOSIG

LFST Flight Activity (Flightaware)

Listeners: 0 out of 1107 total

Strasbourg Approach: 120.700

LFST Approach #2 (Archives)
Strasbourg, France

Feed Status: UP
Listen in your browser - HTML5 player(in browser, HTML5)
Click here to listen with your own player(launches your MP3 player)

LFST 222330Z AUTO 17002KT CAVOK 04/01 Q1027 NOSIG

LFST Flight Activity (Flightaware)

Listeners: 0 out of 1107 total

Strasbourg Approach: 119.575

LFST Emergency/Guard (Archives)
Strasbourg, France

Feed Status: UP
Listen in your browser - HTML5 player(in browser, HTML5)
Click here to listen with your own player(launches your MP3 player)

LFST 222330Z AUTO 17002KT CAVOK 04/01 Q1027 NOSIG

LFST Flight Activity (Flightaware)

Listeners: 0 out of 1107 total

Emergency/Guard: 121.500

LFST Ground (Archives)
Strasbourg, France

Feed Status: UP
Listen in your browser - HTML5 player(in browser, HTML5)
Click here to listen with your own player(launches your MP3 player)

LFST 222330Z AUTO 17002KT CAVOK 04/01 Q1027 NOSIG

LFST Flight Activity (Flightaware)

Listeners: 0 out of 1107 total

Strasbourg Ground: 121.800

LFST Tower (Archives)
Strasbourg, France

Feed Status: UP
Listen in your browser - HTML5 player(in browser, HTML5)
Click here to listen with your own player(launches your MP3 player)

LFST 222330Z AUTO 17002KT CAVOK 04/01 Q1027 NOSIG

LFST Flight Activity (Flightaware)

Listeners: 0 out of 1107 total

Strasbourg Tower: 119.250

LGIR Approach (Archives)
Iraklion, Greece

Feed Status: UP
Listen in your browser - HTML5 player(in browser, HTML5)
Click here to listen with your own player(launches your MP3 player)

LGIR 222350Z 30010KT 9999 SCT025 14/09 Q1019 NOSIG

LGIR Flight Activity (Flightaware)

Listeners: 0 out of 1107 total

Iraklion Radar: 123.975

LGIR Ground (Archives)
Iraklion, Greece

Feed Status: UP
Listen in your browser - HTML5 player(in browser, HTML5)
Click here to listen with your own player(launches your MP3 player)

LGIR 222350Z 30010KT 9999 SCT025 14/09 Q1019 NOSIG

LGIR Flight Activity (Flightaware)

Listeners: 0 out of 1107 total

Heraklion Ground: 121.700

LGIR Tower (Archives)
Iraklion, Greece

Feed Status: UP
Listen in your browser - HTML5 player(in browser, HTML5)
Click here to listen with your own player(launches your MP3 player)

LGIR 222350Z 30010KT 9999 SCT025 14/09 Q1019 NOSIG

LGIR Flight Activity (Flightaware)

Listeners: 0 out of 1107 total

Heraklion Tower: 120.850

LHBP Approach #1 (Archives)
Budapest, Hungary

Feed Status: UP
Listen in your browser - HTML5 player(in browser, HTML5)
Click here to listen with your own player(launches your MP3 player)

LHBP 222330Z 08008KT CAVOK 09/04 Q1029 NOSIG

LHBP Flight Activity (Flightaware)

Listeners: 1 out of 1107 total

Budapest Approach: 129.700
Budapest Approach: 122.975
Budapest Approach (Upper): 123.860

LHBP Approach #2 (Archives)
Budapest, Hungary

Feed Status: UP
Listen in your browser - HTML5 player(in browser, HTML5)
Click here to listen with your own player(launches your MP3 player)

LHBP 222330Z 08008KT CAVOK 09/04 Q1029 NOSIG

LHBP Flight Activity (Flightaware)

Listeners: 0 out of 1107 total

Budapest Approach: 122.975
Budapest Approach (Upper): 123.860

LHBP Approach (Director) (Archives)
Budapest, Hungary

Feed Status: UP
Listen in your browser - HTML5 player(in browser, HTML5)
Click here to listen with your own player(launches your MP3 player)

LHBP 222330Z 08008KT CAVOK 09/04 Q1029 NOSIG

LHBP Flight Activity (Flightaware)

Listeners: 0 out of 1107 total

Budapest Director: 119.510

LHBP ATIS (Archives)
Budapest, Hungary

Feed Status: UP
Listen in your browser - HTML5 player(in browser, HTML5)
Click here to listen with your own player(launches your MP3 player)

LHBP 222330Z 08008KT CAVOK 09/04 Q1029 NOSIG

LHBP Flight Activity (Flightaware)

Listeners: 0 out of 1107 total

Budapest ATIS: 132.380

LHBP Clearance Delivery (Archives)
Budapest, Hungary

Feed Status: UP
Listen in your browser - HTML5 player(in browser, HTML5)
Click here to listen with your own player(launches your MP3 player)

LHBP 222330Z 08008KT CAVOK 09/04 Q1029 NOSIG

LHBP Flight Activity (Flightaware)

Listeners: 0 out of 1107 total

Budapest Clearance Delivery: 134.540

LHBP Ground (Archives)
Budapest, Hungary

Feed Status: UP
Listen in your browser - HTML5 player(in browser, HTML5)
Click here to listen with your own player(launches your MP3 player)

LHBP 222330Z 08008KT CAVOK 09/04 Q1029 NOSIG

LHBP Flight Activity (Flightaware)

Listeners: 1 out of 1107 total

Budapest Ground: 121.910

LHBP Info (Archives)
Budapest, Hungary

Feed Status: UP
Listen in your browser - HTML5 player(in browser, HTML5)
Click here to listen with your own player(launches your MP3 player)

LHBP 222330Z 08008KT CAVOK 09/04 Q1029 NOSIG

LHBP Flight Activity (Flightaware)

Listeners: 2 out of 1107 total

Budapest Info: 119.350

LHBP Tower (Archives)
Budapest, Hungary

Feed Status: UP
Listen in your browser - HTML5 player(in browser, HTML5)
Click here to listen with your own player(launches your MP3 player)

LHBP 222330Z 08008KT CAVOK 09/04 Q1029 NOSIG

LHBP Flight Activity (Flightaware)

Listeners: 0 out of 1107 total

Budapest Tower: 118.100

LHBP Twr/Info (Archives)
Budapest, Hungary

Feed Status: UP
Listen in your browser - HTML5 player(in browser, HTML5)
Click here to listen with your own player(launches your MP3 player)

LHBP 222330Z 08008KT CAVOK 09/04 Q1029 NOSIG

LHBP Flight Activity (Flightaware)

Listeners: 0 out of 1107 total

Budapest Info: 119.350
Budapest Tower: 118.100

LHCC Control (East/West) (Archives)
Budapest, Hungary

Feed Status: UP
Listen in your browser - HTML5 player(in browser, HTML5)
Click here to listen with your own player(launches your MP3 player)

LHBP 222330Z 08008KT CAVOK 09/04 Q1029 NOSIG

LHBP Flight Activity (Flightaware)

Listeners: 0 out of 1107 total

Budapest Control (East Low Sector): 120.375
Budapest Control (West Low Sector): 133.200

LHDC Info/Tower (Archives)
Debrecen, Hungary

Feed Status: UP
Listen in your browser - HTML5 player(in browser, HTML5)
Click here to listen with your own player(launches your MP3 player)

LHDC 222315Z AUTO 01009KT 9000 NCD 09/04 Q1029 NOSIG

LHDC Flight Activity (Flightaware)

Listeners: 0 out of 1107 total

Debrecen Info/Tower: 125.900

LHEM CTAF (Archives)
Esztergom, Hungary

Feed Status: UP
Listen in your browser - HTML5 player(in browser, HTML5)
Click here to listen with your own player(launches your MP3 player)

LHEM Flight Activity (Flightaware)

Listeners: 0 out of 1107 total

Esztergom CTAF: 126.850

LHPR Info/AFIS (Archives)
Gyor, Hungary

Feed Status: UP
Listen in your browser - HTML5 player(in browser, HTML5)
Click here to listen with your own player(launches your MP3 player)

LHPR 222315Z AUTO VRB02KT CAVOK 04/02 Q1029

LHPR Flight Activity (Flightaware)

Listeners: 0 out of 1107 total

Gyor AFIS: 129.910

LHUD CTAF/Info/AFIS (Archives)
Szeged, Hungary

Feed Status: UP
Listen in your browser - HTML5 player(in browser, HTML5)
Click here to listen with your own player(launches your MP3 player)

LHUD 222245Z 33004KT CAVOK 05/M02 Q1029

LHUD Flight Activity (Flightaware)

Listeners: 0 out of 1107 total

Szeged CTAF/Info/AFIS: 122.810

LJLJ Radar (Archives)
Ljubljana, Slovenia

Feed Status: UP
Listen in your browser - HTML5 player(in browser, HTML5)
Click here to listen with your own player(launches your MP3 player)

LJLJ 222330Z VRB01KT CAVOK 02/00 Q1029 NOSIG

LJLJ Flight Activity (Flightaware)

Listeners: 0 out of 1107 total

Ljubljana Approach: 135.275

LJLJ Tower (Archives)
Ljubljana, Slovenia

Feed Status: UP
Listen in your browser - HTML5 player(in browser, HTML5)
Click here to listen with your own player(launches your MP3 player)

LJLJ 222330Z VRB01KT CAVOK 02/00 Q1029 NOSIG

LJLJ Flight Activity (Flightaware)

Listeners: 0 out of 1107 total

Ljubljana Tower: 118.000

LJMB Info/FSS/FIC (Archives)
Maribor, Slovenia

Feed Status: UP
Listen in your browser - HTML5 player(in browser, HTML5)
Click here to listen with your own player(launches your MP3 player)

LJMB 222330Z AUTO 00000KT 9999 NCD 04/M00 Q1029

LJMB Flight Activity (Flightaware)

Listeners: 0 out of 1107 total

Ljubljana Information FSS/FIC (Maribor Area): 118.475

LJMB Tower/Approach (Archives)
Maribor, Slovenia

Feed Status: UP
Listen in your browser - HTML5 player(in browser, HTML5)
Click here to listen with your own player(launches your MP3 player)

LJMB 222330Z AUTO 00000KT 9999 NCD 04/M00 Q1029

LJMB Flight Activity (Flightaware)

Listeners: 0 out of 1107 total

Maribor Tower/Approach: 119.200

LJPZ Tower (Archives)
Secovlje, Slovenia

Feed Status: UP
Listen in your browser - HTML5 player(in browser, HTML5)
Click here to listen with your own player(launches your MP3 player)

LJPZ 222330Z AUTO VRB02KT 9999 NCD 06/M00 Q1026

LJPZ Flight Activity (Flightaware)

Listeners: 0 out of 1107 total

Portoroz Tower: 124.875

LKPM Tower (Archives)
Pribram, Czech Republic

Feed Status: UP
Listen in your browser - HTML5 player(in browser, HTML5)
Click here to listen with your own player(launches your MP3 player)

METAR NOT AVAILABLE

LKPM Flight Activity (Flightaware)

Listeners: 0 out of 1107 total

Pribram Tower: 118.750

LKAA FIR (High) (Archives)
Prague, Czech Republic

Feed Status: UP
Listen in your browser - HTML5 player(in browser, HTML5)
Click here to listen with your own player(launches your MP3 player)

LKAA Flight Activity (Flightaware)

Listeners: 1 out of 1107 total

LKAA FIR Sector West High / Praha Radar : 132.065

LKAA FIR (Low) (Archives)
Prague, Czech Republic

Feed Status: UP
Listen in your browser - HTML5 player(in browser, HTML5)
Click here to listen with your own player(launches your MP3 player)

LKAA Flight Activity (Flightaware)

Listeners: 0 out of 1107 total

LKAA FIR Sector West Low / Praha Radar: 120.275

LKPR Approach (Archives)
Prague, Czech Republic

Feed Status: UP
Listen in your browser - HTML5 player(in browser, HTML5)
Click here to listen with your own player(launches your MP3 player)

LKPR 222330Z 15004KT CAVOK 10/05 Q1028 NOSIG

LKPR Flight Activity (Flightaware)

Listeners: 1 out of 1107 total

Prague Approach/Radar: 127.580

LKPR Clearance Del (Archives)
Prague, Czech Republic

Feed Status: UP
Listen in your browser - HTML5 player(in browser, HTML5)
Click here to listen with your own player(launches your MP3 player)

LKPR 222330Z 15004KT CAVOK 10/05 Q1028 NOSIG

LKPR Flight Activity (Flightaware)

Listeners: 0 out of 1107 total


LKPR Director/Ruzyne Radar (Archives)
Prague, Czech Republic

Feed Status: UP
Listen in your browser - HTML5 player(in browser, HTML5)
Click here to listen with your own player(launches your MP3 player)

LKPR 222330Z 15004KT CAVOK 10/05 Q1028 NOSIG

LKPR Flight Activity (Flightaware)

Listeners: 0 out of 1107 total

Prague Director/Ruzyne Radar: 119.010

NOTE: Only active during peak times, typically 2-6PM local time (CET)

LKPR Ground (Archives)
Prague, Czech Republic

Feed Status: UP
Listen in your browser - HTML5 player(in browser, HTML5)
Click here to listen with your own player(launches your MP3 player)

LKPR 222330Z 15004KT CAVOK 10/05 Q1028 NOSIG

LKPR Flight Activity (Flightaware)

Listeners: 0 out of 1107 total

Prague/Ruzyne Clearance Delivery: 120.060
Prague/Ruzyne Ground: 121.910

LKPR Tower (Archives)
Prague, Czech Republic

Feed Status: UP
Listen in your browser - HTML5 player(in browser, HTML5)
Click here to listen with your own player(launches your MP3 player)

LKPR 222330Z 15004KT CAVOK 10/05 Q1028 NOSIG

LKPR Flight Activity (Flightaware)

Listeners: 2 out of 1107 total

Prague/Ruzyne Tower: 134.560

LKTB Gnd/Twr/Radar (Archives)
Brno, Czech Republic

Feed Status: UP
Listen in your browser - HTML5 player(in browser, HTML5)
Click here to listen with your own player(launches your MP3 player)

LKTB 222330Z 03003KT 7000 NSC 08/05 Q1029 NOSIG

LKTB Flight Activity (Flightaware)

Listeners: 1 out of 1107 total

Brno Ground: 125.425
Brno Handling: 131.800
Brno Radar (Approach): 127.350
Brno Tower: 119.600

Santa Maria Control (Oceanic) (Archives)
Santa Maria Island (Azores), Portugal

Feed Status: UP
Listen in your browser - HTML5 player(in browser, HTML5)
Click here to listen with your own player(launches your MP3 player)

LPAZ 222330Z 00000KT 9999 FEW025 BKN039 15/10 Q1026

LPAZ Flight Activity (Flightaware)

Listeners: 0 out of 1107 total

Emergency/Guard: 121.500
LPHR (Horta) Approach: 120.600
LPLA (Terceira) Approach: 135.000
LPLA (Terceira) Tower: 122.100
LPPD (Ponta Delgada) Approach: 119.400
Ponta Delgada Ground: 131.600
Santa Maria Approach: 119.100
Santa Maria Control: 132.150

LPCS Ground
Cascais, Portugal

Feed Status: DOWN
Offline since: 2019-03-18 20:14:03 UTC

LPCS 222030Z 01007KT CAVOK 15/05 Q1023

Cascais Ground: 121.850

LPCS Tower
Cascais, Portugal

Feed Status: DOWN
Offline since: 2019-03-18 20:14:03 UTC

LPCS 222030Z 01007KT CAVOK 15/05 Q1023

Cascais Tower: 120.300

LPLA Gnd/Twr/App (Archives)
Lajes, Portugal

Feed Status: UP
Listen in your browser - HTML5 player(in browser, HTML5)
Click here to listen with your own player(launches your MP3 player)

LPLA 222300Z /////KT 9999 SCT012 16/13 Q1025

LPLA Flight Activity (Flightaware)

Listeners: 1 out of 1107 total

Lajes Approach: 135.000
Lajes Ground: 121.900
Lajes Tower: 122.100

LPPR Approach (Archives)
Porto, Portugal

Feed Status: UP
Listen in your browser - HTML5 player(in browser, HTML5)
Click here to listen with your own player(launches your MP3 player)

LPPR 222330Z 00000KT CAVOK 08/04 Q1025

LPPR Flight Activity (Flightaware)

Listeners: 1 out of 1107 total

Porto Approach: 121.100

LPPT Approach (Archives)
Lisbon, Portugal

Feed Status: UP
Listen in your browser - HTML5 player(in browser, HTML5)
Click here to listen with your own player(launches your MP3 player)

LPPT 222330Z 35006KT CAVOK 13/02 Q1023

LPPT Flight Activity (Flightaware)

Listeners: 4 out of 1107 total

Lisbon Approach: 119.100

LRCL Twr/App #1 (Archives)
Cluj-Napoca, Romania

Feed Status: UP
Listen in your browser - HTML5 player(in browser, HTML5)
Click here to listen with your own player(launches your MP3 player)

LRCL 222330Z 27008KT CAVOK 06/02 Q1027

LRCL Flight Activity (Flightaware)

Listeners: 0 out of 1107 total

Cluj Approach: 126.425
Cluj Tower: 134.400

LRCL Twr/App #2 (Archives)
Cluj-Napoca, Romania

Feed Status: UP
Listen in your browser - HTML5 player(in browser, HTML5)
Click here to listen with your own player(launches your MP3 player)

LRCL 222330Z 27008KT CAVOK 06/02 Q1027

LRCL Flight Activity (Flightaware)

Listeners: 0 out of 1107 total

Cluj Approach: 126.425
Cluj Tower: 134.400

LRCL Twr/App/ACC
Cluj-Napoca, Romania

Feed Status: DOWN
Offline since: 2019-03-22 21:22:03 UTC

LRCL 222330Z 27008KT CAVOK 06/02 Q1027

Cluj Approach: 126.425
Cluj Tower: 134.400
Napoc ACC: 127.075

LROP Ground (Archives)
Bucharest, Romania

Feed Status: UP
Listen in your browser - HTML5 player(in browser, HTML5)
Click here to listen with your own player(launches your MP3 player)

LROP 222330Z 03004KT 360V060 CAVOK 06/02 Q1026 NOSIG

LROP Flight Activity (Flightaware)

Listeners: 0 out of 1107 total

Bucharest Ground: 121.855

LROP Radar (Archives)
Bucharest, Romania

Feed Status: UP
Listen in your browser - HTML5 player(in browser, HTML5)
Click here to listen with your own player(launches your MP3 player)

LROP 222330Z 03004KT 360V060 CAVOK 06/02 Q1026 NOSIG

LROP Flight Activity (Flightaware)

Listeners: 0 out of 1107 total

Bucharest Radar (Arges Mid sector): 121.175
Bucharest Radar (Arges Top Sector): 123.265
Bucharest Radar (Lomos Top Sector): 132.865

LROP Tower/Approach (Archives)
Bucharest, Romania

Feed Status: UP
Listen in your browser - HTML5 player(in browser, HTML5)
Click here to listen with your own player(launches your MP3 player)

LROP 222330Z 03004KT 360V060 CAVOK 06/02 Q1026 NOSIG

LROP Flight Activity (Flightaware)

Listeners: 0 out of 1107 total

Bucharest Approach: 119.415
Bucharest Director: 127.155
Bucharest Tower: 118.805

LROP Twr/App/Radar (Archives)
Bucharest, Romania

Feed Status: UP
Listen in your browser - HTML5 player(in browser, HTML5)
Click here to listen with your own player(launches your MP3 player)

LROP 222330Z 03004KT 360V060 CAVOK 06/02 Q1026 NOSIG

LROP Flight Activity (Flightaware)

Listeners: 2 out of 1107 total

Bucharest Approach: 119.415
Bucharest Director: 127.155
Bucharest Radar (Arges Mid sector): 121.175
Bucharest Radar (Arges Top Sector): 123.265
Bucharest Radar (Lomos Top Sector): 132.865
Bucharest Tower: 118.805

Note: Bucharest Radar on right stereo channel and Bucharest Tower/Approach on left stereo channel.

LRSB Tower/CTAF (Archives)
Sibiu, Romania

Feed Status: UP
Listen in your browser - HTML5 player(in browser, HTML5)
Click here to listen with your own player(launches your MP3 player)

LRSB 222330Z 24005KT 140V270 CAVOK 04/00 Q1027 NOSIG

LRSB Flight Activity (Flightaware)

Listeners: 0 out of 1107 total

Sibiu Tower: 121.305

LRTR Tower (Archives)
Timisoara, Romania

Feed Status: UP
Listen in your browser - HTML5 player(in browser, HTML5)
Click here to listen with your own player(launches your MP3 player)

LRTR 222330Z AUTO 36006KT 9999 NCD 07/05 Q1027 NOSIG

LRTR Flight Activity (Flightaware)

Listeners: 0 out of 1107 total

ARAD Approach: 127.250
Timisoara Tower: 120.100

LSGG App/Radar (Archives)
Geneva, Switzerland

Feed Status: UP
Listen in your browser - HTML5 player(in browser, HTML5)
Click here to listen with your own player(launches your MP3 player)

LSGG 222350Z AUTO VRB02KT CAVOK 04/00 Q1028 NOSIG

LSGG Flight Activity (Flightaware)

Listeners: 2 out of 1107 total

Geneva Arrival: 136.250
Swiss Radar (L2 - FL290-FL310): 126.050

LSGG Approach (Archives)
Geneva, Switzerland

Feed Status: UP
Listen in your browser - HTML5 player(in browser, HTML5)
Click here to listen with your own player(launches your MP3 player)

LSGG 222350Z AUTO VRB02KT CAVOK 04/00 Q1028 NOSIG

LSGG Flight Activity (Flightaware)

Listeners: 0 out of 1107 total

Geneva Arrival: 136.250

LSGG Radar (Archives)
Geneva, Switzerland

Feed Status: UP
Listen in your browser - HTML5 player(in browser, HTML5)
Click here to listen with your own player(launches your MP3 player)

LSGG 222350Z AUTO VRB02KT CAVOK 04/00 Q1028 NOSIG

LSGG Flight Activity (Flightaware)

Listeners: 1 out of 1107 total

Swiss Radar (L2 - FL290-FL310): 126.050

LSGG Tower (Archives)
Geneva, Switzerland

Feed Status: UP
Listen in your browser - HTML5 player(in browser, HTML5)
Click here to listen with your own player(launches your MP3 player)

LSGG 222350Z AUTO VRB02KT CAVOK 04/00 Q1028 NOSIG

LSGG Flight Activity (Flightaware)

Listeners: 1 out of 1107 total

Geneva Tower: 118.700

LSGS Gnd/Twr/App (Archives)
Sion, Switzerland

Feed Status: UP
Listen in your browser - HTML5 player(in browser, HTML5)
Click here to listen with your own player(launches your MP3 player)

LSGS 222350Z AUTO VRB02KT CAVOK 07/M03 Q1029

LSGS Flight Activity (Flightaware)

Listeners: 0 out of 1107 total

Alpine Jet Service Handling: 131.675
Sion Airport Handling: 131.475
Sion Approach (IFR ARR MIL OFF): 126.825
Sion Ground: 121.700
Sion Tower: 118.275

LiveATC LSGS - About us

LSMD Tower (Archives)
Dubendorf, Switzerland

Feed Status: UP
Listen in your browser - HTML5 player(in browser, HTML5)
Click here to listen with your own player(launches your MP3 player)

LSZH 222350Z 00000KT CAVOK 03/01 Q1028 NOSIG

LSZH Flight Activity (Flightaware)

Listeners: 0 out of 1107 total

Dubendorf Tower: 118.975

LSPM AFIS (Archives)
Ambri, Switzerland

Feed Status: UP
Listen in your browser - HTML5 player(in browser, HTML5)
Click here to listen with your own player(launches your MP3 player)

METAR NOT AVAILABLE

LSPM Flight Activity (Flightaware)

Listeners: 0 out of 1107 total

Ambri AFIS: 118.525

LSZA Tower (Archives)
Agno, Switzerland

Feed Status: UP
Listen in your browser - HTML5 player(in browser, HTML5)
Click here to listen with your own player(launches your MP3 player)

LSZA 222350Z AUTO 02003KT CAVOK 06/02 Q1028

LSZA Flight Activity (Flightaware)

Listeners: 0 out of 1107 total

Lugano Tower: 120.250

LSZB Tower/App/Dep (Archives)
Bern, Switzerland

Feed Status: UP
Listen in your browser - HTML5 player(in browser, HTML5)
Click here to listen with your own player(launches your MP3 player)

LSZB 222350Z AUTO VRB01KT CAVOK 01/M01 Q1028

LSZB Flight Activity (Flightaware)

Listeners: 0 out of 1107 total

LSZB Arrival/Departure (left channel): 127.325
LSZB Tower (right channel): 121.025

LSZG Tower (Archives)
Grenchen, Switzerland

Feed Status: UP
Listen in your browser - HTML5 player(in browser, HTML5)
Click here to listen with your own player(launches your MP3 player)

LSZG 222350Z AUTO 00000KT 6000 NCD 02/02 Q1029

LSZG Flight Activity (Flightaware)

Listeners: 0 out of 1107 total

Grenchen Tower: 120.100

LSZH Approach (East) (Archives)
Zurich, Switzerland

Feed Status: UP
Listen in your browser - HTML5 player(in browser, HTML5)
Click here to listen with your own player(launches your MP3 player)

LSZH 222350Z 00000KT CAVOK 03/01 Q1028 NOSIG

LSZH Flight Activity (Flightaware)

Listeners: 0 out of 1107 total

Zurich Approach (East): 135.225

LSZH Approach (West) (Archives)
Zurich, Switzerland

Feed Status: UP
Listen in your browser - HTML5 player(in browser, HTML5)
Click here to listen with your own player(launches your MP3 player)

LSZH 222350Z 00000KT CAVOK 03/01 Q1028 NOSIG

LSZH Flight Activity (Flightaware)

Listeners: 0 out of 1107 total

Zurich Approach (West): 118.000

LSZH Apron (South) (Archives)
Zurich, Switzerland

Feed Status: UP
Listen in your browser - HTML5 player(in browser, HTML5)
Click here to listen with your own player(launches your MP3 player)

LSZH 222350Z 00000KT CAVOK 03/01 Q1028 NOSIG

LSZH Flight Activity (Flightaware)

Listeners: 0 out of 1107 total

Zurich Apron (South): 121.755

LSZH Apron (West) (Archives)
Zurich, Switzerland

Feed Status: UP
Listen in your browser - HTML5 player(in browser, HTML5)
Click here to listen with your own player(launches your MP3 player)

LSZH 222350Z 00000KT CAVOK 03/01 Q1028 NOSIG

LSZH Flight Activity (Flightaware)

Listeners: 0 out of 1107 total

Zurich Apron (West): 121.855

LSZH Clearance Delivery (Archives)
Zurich, Switzerland

Feed Status: UP
Listen in your browser - HTML5 player(in browser, HTML5)
Click here to listen with your own player(launches your MP3 player)

LSZH 222350Z 00000KT CAVOK 03/01 Q1028 NOSIG

LSZH Flight Activity (Flightaware)

Listeners: 0 out of 1107 total

Zurich Clearance Delivery: 121.925

LSZH Ground (Archives)
Zurich, Switzerland

Feed Status: UP
Listen in your browser - HTML5 player(in browser, HTML5)
Click here to listen with your own player(launches your MP3 player)

LSZH 222350Z 00000KT CAVOK 03/01 Q1028 NOSIG

LSZH Flight Activity (Flightaware)

Listeners: 0 out of 1107 total

Zurich Ground: 121.905

LSZH Radar (Archives)
Zurich, Switzerland

Feed Status: UP
Listen in your browser - HTML5 player(in browser, HTML5)
Click here to listen with your own player(launches your MP3 player)

LSZH 222350Z 00000KT CAVOK 03/01 Q1028 NOSIG

LSZH Flight Activity (Flightaware)

Listeners: 1 out of 1107 total

Zurich Radar ACC (-FL240 East): 133.900
Zurich Radar ACC (-FL240 North): 136.150
Zurich Radar ACC (-FL240 South): 128.050
Zurich Radar ACC (-FL240 West): 135.675
Zurich Radar ACC (FL250-280): 133.050
Zurich Radar ACC (FL290-320): 132.815
Zurich Radar ACC (FL330-350): 134.600
Zurich Radar ACC (FL360+): 133.400

LSZH Radar 132.815 (Archives)
Zurich, Switzerland

Feed Status: UP
Listen in your browser - HTML5 player(in browser, HTML5)
Click here to listen with your own player(launches your MP3 player)

LSZH 222350Z 00000KT CAVOK 03/01 Q1028 NOSIG

LSZH Flight Activity (Flightaware)

Listeners: 0 out of 1107 total

Zurich Radar: 132.815

LSZH Radar 133.050 (Archives)
Zurich, Switzerland

Feed Status: UP
Listen in your browser - HTML5 player(in browser, HTML5)
Click here to listen with your own player(launches your MP3 player)

LSZH 222350Z 00000KT CAVOK 03/01 Q1028 NOSIG

LSZH Flight Activity (Flightaware)

Listeners: 0 out of 1107 total

Zurich Radar: 133.050

LSZH Radar 133.405 (Archives)
Zurich, Switzerland

Feed Status: UP
Listen in your browser - HTML5 player(in browser, HTML5)
Click here to listen with your own player(launches your MP3 player)

LSZH 222350Z 00000KT CAVOK 03/01 Q1028 NOSIG

LSZH Flight Activity (Flightaware)

Listeners: 0 out of 1107 total

Zurich Radar: 133.405

LSZH Radar 133.690 (Archives)
Zurich, Switzerland

Feed Status: UP
Listen in your browser - HTML5 player(in browser, HTML5)
Click here to listen with your own player(launches your MP3 player)

LSZH 222350Z 00000KT CAVOK 03/01 Q1028 NOSIG

LSZH Flight Activity (Flightaware)

Listeners: 0 out of 1107 total

Zurich Radar: 133.690

LSZH Radar 133.905 (Archives)
Zurich, Switzerland

Feed Status: UP
Listen in your browser - HTML5 player(in browser, HTML5)
Click here to listen with your own player(launches your MP3 player)

LSZH 222350Z 00000KT CAVOK 03/01 Q1028 NOSIG

LSZH Flight Activity (Flightaware)

Listeners: 0 out of 1107 total

Zurich Radar (Below FL240 East): 133.905

LSZH Radar 134.605 (Archives)
Zurich, Switzerland

Feed Status: UP
Listen in your browser - HTML5 player(in browser, HTML5)
Click here to listen with your own player(launches your MP3 player)

LSZH 222350Z 00000KT CAVOK 03/01 Q1028 NOSIG

LSZH Flight Activity (Flightaware)

Listeners: 0 out of 1107 total

Zurich Radar (FL330-350): 134.605

LSZH Radar 135.680 (Archives)
Zurich, Switzerland

Feed Status: UP
Listen in your browser - HTML5 player(in browser, HTML5)
Click here to listen with your own player(launches your MP3 player)

LSZH 222350Z 00000KT CAVOK 03/01 Q1028 NOSIG

LSZH Flight Activity (Flightaware)

Listeners: 0 out of 1107 total


LSZH Radar 136.155 (Archives)
Zurich, Switzerland

Feed Status: UP
Listen in your browser - HTML5 player(in browser, HTML5)
Click here to listen with your own player(launches your MP3 player)

LSZH 222350Z 00000KT CAVOK 03/01 Q1028 NOSIG

LSZH Flight Activity (Flightaware)

Listeners: 0 out of 1107 total

Zurich Radar (Below FL240 North): 136.155

LSZH Tower
Zurich, Switzerland

Feed Status: DOWN
Offline since: 2019-03-23 00:25:02 UTC

LSZH 222350Z 00000KT CAVOK 03/01 Q1028 NOSIG

Zurich Tower: 118.100

LSZH Tower #3 (Archives)
Zurich, Switzerland

Feed Status: UP
Listen in your browser - HTML5 player(in browser, HTML5)
Click here to listen with your own player(launches your MP3 player)

LSZH 222350Z 00000KT CAVOK 03/01 Q1028 NOSIG

LSZH Flight Activity (Flightaware)

Listeners: 0 out of 1107 total

Zurich Tower: 118.100

LSZH Tower (14/32) (Archives)
Zurich, Switzerland

Feed Status: UP
Listen in your browser - HTML5 player(in browser, HTML5)
Click here to listen with your own player(launches your MP3 player)

LSZH 222350Z 00000KT CAVOK 03/01 Q1028 NOSIG

LSZH Flight Activity (Flightaware)

Listeners: 0 out of 1107 total

Zurich Tower (Rwy 14 App/32 Takeoff): 120.225

LSZH Twr/Gnd (backup) (Archives)
Zurich, Switzerland

Feed Status: UP
Listen in your browser - HTML5 player(in browser, HTML5)
Click here to listen with your own player(launches your MP3 player)

LSZH 222350Z 00000KT CAVOK 03/01 Q1028 NOSIG

LSZH Flight Activity (Flightaware)

Listeners: 0 out of 1107 total

Zurich Twr/Gnd (backup): 119.700

LSZL Tower (Archives)
Locarno, Switzerland

Feed Status: UP
Listen in your browser - HTML5 player(in browser, HTML5)
Click here to listen with your own player(launches your MP3 player)

LSZL Flight Activity (Flightaware)

Listeners: 0 out of 1107 total


LSZR Tower (Archives)
Altenrhein, Switzerland

Feed Status: UP
Listen in your browser - HTML5 player(in browser, HTML5)
Click here to listen with your own player(launches your MP3 player)

LSZR 222350Z AUTO 27002KT CAVOK 02/01 Q1028

LSZR Flight Activity (Flightaware)

Listeners: 0 out of 1107 total

Altenrhein Tower: 135.425

LSZW CTAF (Archives)
Thun, Switzerland

Feed Status: UP
Listen in your browser - HTML5 player(in browser, HTML5)
Click here to listen with your own player(launches your MP3 player)

LSZW Flight Activity (Flightaware)

Listeners: 0 out of 1107 total

Thun CTAF/Info: 123.250

LTFJ Del/Gnd/Twr #1 (Archives)
Istanbul, Turkey

Feed Status: UP
Listen in your browser - HTML5 player(in browser, HTML5)
Click here to listen with your own player(launches your MP3 player)

LTFJ 222350Z 05007KT CAVOK 04/M01 Q1024 NOSIG

LTFJ Flight Activity (Flightaware)

Listeners: 4 out of 1107 total

Gokcen Clearance Delivery: 122.625
Gokcen Ground: 121.750
Gokcen Tower: 118.800

LTFJ Del/Gnd/Twr #2 (Archives)
Istanbul, Turkey

Feed Status: UP
Listen in your browser - HTML5 player(in browser, HTML5)
Click here to listen with your own player(launches your MP3 player)

LTFJ 222350Z 05007KT CAVOK 04/M01 Q1024 NOSIG

LTFJ Flight Activity (Flightaware)

Listeners: 0 out of 1107 total

Gokcen Clearance Delivery: 122.625
Gokcen Ground: 121.750
Gokcen Tower: 118.800

LUKK ACC #1 (Archives)
Chisinau, Moldova

Feed Status: UP
Listen in your browser - HTML5 player(in browser, HTML5)
Click here to listen with your own player(launches your MP3 player)

LUKK 230000Z 35004KT 320V020 CAVOK 08/01 Q1024 R26/CLRD// NOSIG

LUKK Flight Activity (Flightaware)

Listeners: 0 out of 1107 total

Chisinau ACC: 130.975

Runway 08 Blog

LUKK ACC #2 (Archives)
Chisinau, Moldova

Feed Status: UP
Listen in your browser - HTML5 player(in browser, HTML5)
Click here to listen with your own player(launches your MP3 player)

LUKK 230000Z 35004KT 320V020 CAVOK 08/01 Q1024 R26/CLRD// NOSIG

LUKK Flight Activity (Flightaware)

Listeners: 0 out of 1107 total

Chisinau ACC: 128.975

Runway 08 Blog

LUKK Air to Air (Archives)
Chisinau, Moldova

Feed Status: UP
Listen in your browser - HTML5 player(in browser, HTML5)
Click here to listen with your own player(launches your MP3 player)

LUKK 230000Z 35004KT 320V020 CAVOK 08/01 Q1024 R26/CLRD// NOSIG

LUKK Flight Activity (Flightaware)

Listeners: 0 out of 1107 total

Chisinau Air to Air: 123.450

Runway 08 Blog

LUKK Alternate (Archives)
Chisinau, Moldova

Feed Status: UP
Listen in your browser - HTML5 player(in browser, HTML5)
Click here to listen with your own player(launches your MP3 player)

LUKK 230000Z 35004KT 320V020 CAVOK 08/01 Q1024 R26/CLRD// NOSIG

LUKK Flight Activity (Flightaware)

Listeners: 0 out of 1107 total

Chisinau Alternate: 129.725

LUKK Approach #1 (Archives)
Chisinau, Moldova

Feed Status: UP
Listen in your browser - HTML5 player(in browser, HTML5)
Click here to listen with your own player(launches your MP3 player)

LUKK 230000Z 35004KT 320V020 CAVOK 08/01 Q1024 R26/CLRD// NOSIG

LUKK Flight Activity (Flightaware)

Listeners: 0 out of 1107 total

Chisinau Approach: 133.300

LUKK Approach #2 (Archives)
Chisinau, Moldova

Feed Status: UP
Listen in your browser - HTML5 player(in browser, HTML5)
Click here to listen with your own player(launches your MP3 player)

LUKK 230000Z 35004KT 320V020 CAVOK 08/01 Q1024 R26/CLRD// NOSIG

LUKK Flight Activity (Flightaware)

Listeners: 0 out of 1107 total

Chisinau Approach: 133.300

Runway 08 Blog

LUKK Control (Archives)
Chisinau, Moldova

Feed Status: UP
Listen in your browser - HTML5 player(in browser, HTML5)
Click here to listen with your own player(launches your MP3 player)

LUKK 230000Z 35004KT 320V020 CAVOK 08/01 Q1024 R26/CLRD// NOSIG

LUKK Flight Activity (Flightaware)

Listeners: 0 out of 1107 total

Chisinau ACC: 128.975
Chisinau ACC: 130.975

LUKK Emergency/Guard (Archives)
Chisinau, Moldova

Feed Status: UP
Listen in your browser - HTML5 player(in browser, HTML5)
Click here to listen with your own player(launches your MP3 player)

LUKK 230000Z 35004KT 320V020 CAVOK 08/01 Q1024 R26/CLRD// NOSIG

LUKK Flight Activity (Flightaware)

Listeners: 0 out of 1107 total

Emergency/Guard: 121.500

Runway 08 Blog

LUKK Ground #1 (Archives)
Chisinau, Moldova

Feed Status: UP
Listen in your browser - HTML5 player(in browser, HTML5)
Click here to listen with your own player(launches your MP3 player)

LUKK 230000Z 35004KT 320V020 CAVOK 08/01 Q1024 R26/CLRD// NOSIG

LUKK Flight Activity (Flightaware)

Listeners: 0 out of 1107 total

Chisinau Ground: 121.800

LUKK Ground #2 (Archives)
Chisinau, Moldova

Feed Status: UP
Listen in your browser - HTML5 player(in browser, HTML5)
Click here to listen with your own player(launches your MP3 player)

LUKK 230000Z 35004KT 320V020 CAVOK 08/01 Q1024 R26/CLRD// NOSIG

LUKK Flight Activity (Flightaware)

Listeners: 0 out of 1107 total

Chisinau Ground: 121.800

Runway 08 Blog

LUKK Handling (Archives)
Chisinau, Moldova

Feed Status: UP
Listen in your browser - HTML5 player(in browser, HTML5)
Click here to listen with your own player(launches your MP3 player)

LUKK 230000Z 35004KT 320V020 CAVOK 08/01 Q1024 R26/CLRD// NOSIG

LUKK Flight Activity (Flightaware)

Listeners: 0 out of 1107 total

Chisinau Handling: 131.700

Runway 08 Blog

LUKK Tower #1 (Archives)
Chisinau, Moldova

Feed Status: UP
Listen in your browser - HTML5 player(in browser, HTML5)
Click here to listen with your own player(launches your MP3 player)

LUKK 230000Z 35004KT 320V020 CAVOK 08/01 Q1024 R26/CLRD// NOSIG

LUKK Flight Activity (Flightaware)

Listeners: 0 out of 1107 total

Chisinau Tower: 118.100

LUKK Tower #2 (Archives)
Chisinau, Moldova

Feed Status: UP
Listen in your browser - HTML5 player(in browser, HTML5)
Click here to listen with your own player(launches your MP3 player)

LUKK 230000Z 35004KT 320V020 CAVOK 08/01 Q1024 R26/CLRD// NOSIG

LUKK Flight Activity (Flightaware)

Listeners: 0 out of 1107 total

Chisinau Tower: 118.100

Runway 08 Blog

LWSK ACC (Lower) (Archives)
Petrovec, Macedonia, Republic of

Feed Status: UP
Listen in your browser - HTML5 player(in browser, HTML5)
Click here to listen with your own player(launches your MP3 player)

LWSK 222330Z VRB02KT CAVOK 06/M03 Q1026 NOSIG

LWSK Flight Activity (Flightaware)

Listeners: 0 out of 1107 total

Skopje Control (Lower): 119.375

LWSK ACC (Upper) (Archives)
Petrovec, Macedonia, Republic of

Feed Status: UP
Listen in your browser - HTML5 player(in browser, HTML5)
Click here to listen with your own player(launches your MP3 player)

LWSK 222330Z VRB02KT CAVOK 06/M03 Q1026 NOSIG

LWSK Flight Activity (Flightaware)

Listeners: 0 out of 1107 total

Skopje Control (Upper): 120.015

LWSK Approach (Archives)
Petrovec, Macedonia, Republic of

Feed Status: UP
Listen in your browser - HTML5 player(in browser, HTML5)
Click here to listen with your own player(launches your MP3 player)

LWSK 222330Z VRB02KT CAVOK 06/M03 Q1026 NOSIG

LWSK Flight Activity (Flightaware)

Listeners: 0 out of 1107 total

Skopje Approach/Departure: 120.300

LWSK ATIS (Archives)
Petrovec, Macedonia, Republic of

Feed Status: UP
Listen in your browser - HTML5 player(in browser, HTML5)
Click here to listen with your own player(launches your MP3 player)

LWSK 222330Z VRB02KT CAVOK 06/M03 Q1026 NOSIG

LWSK Flight Activity (Flightaware)

Listeners: 0 out of 1107 total

Skopje ATIS: 130.125

LWSK Tower (Archives)
Petrovec, Macedonia, Republic of

Feed Status: UP
Listen in your browser - HTML5 player(in browser, HTML5)
Click here to listen with your own player(launches your MP3 player)

LWSK 222330Z VRB02KT CAVOK 06/M03 Q1026 NOSIG

LWSK Flight Activity (Flightaware)

Listeners: 1 out of 1107 total

Skopje Tower: 118.500

LZIB Del/Twr/App (Archives)
Bratislava, Slovakia

Feed Status: UP
Listen in your browser - HTML5 player(in browser, HTML5)
Click here to listen with your own player(launches your MP3 player)

LZIB 230000Z 25002KT CAVOK 06/03 Q1029

LZIB Flight Activity (Flightaware)

Listeners: 2 out of 1107 total

Stefanik Approach: 120.900
Stefanik Clearance Delivery: 118.975
Stefanik Tower: 118.300
Stefanik Tower (backup): 118.700

(c) LPS

LZKZ Gnd/Twr/App (Archives)
Kosice, Slovakia

Feed Status: UP
Listen in your browser - HTML5 player(in browser, HTML5)
Click here to listen with your own player(launches your MP3 player)

LZKZ 230000Z 01008KT CAVOK 09/03 Q1030

LZKZ Flight Activity (Flightaware)

Listeners: 1 out of 1107 total

Kosice Approach: 119.850
Kosice Ground: 121.700
Kosice Handling: 131.850
Kosice Tower: 120.400

LZPE CTAF/UNICOM (Archives)
Prievidza, Slovakia

Feed Status: UP
Listen in your browser - HTML5 player(in browser, HTML5)
Click here to listen with your own player(launches your MP3 player)

LZPE Flight Activity (Flightaware)

Listeners: 0 out of 1107 total

Prievidza CTAF/UNICOM: 123.055

LZPP Ground/Tower (Archives)
Piestany, Slovakia

Feed Status: UP
Listen in your browser - HTML5 player(in browser, HTML5)
Click here to listen with your own player(launches your MP3 player)

LZPP 222330Z AUTO 01007KT 6000 NCD 07/05 Q1029

LZPP Flight Activity (Flightaware)

Listeners: 0 out of 1107 total

Piestany Ground: 121.700
Piestany Tower: 118.575

LZPT CTAF (Archives)
Partizanske, Slovakia

Feed Status: UP
Listen in your browser - HTML5 player(in browser, HTML5)
Click here to listen with your own player(launches your MP3 player)

LZPT Flight Activity (Flightaware)

Listeners: 0 out of 1107 total

Male Bielice CTAF: 123.500

URKK Gnd/Twr/App (Archives)
Krasnodar, Russia

Feed Status: UP
Listen in your browser - HTML5 player(in browser, HTML5)
Click here to listen with your own player(launches your MP3 player)

URKK 222330Z 23010MPS 9000 -SHRA FEW014 BKN024CB 08/05 Q1016 R23L/290060 TEMPO 21010G16MPS RMK QFE758

URKK Flight Activity (Flightaware)

Listeners: 1 out of 1107 total

Krasnodar Approach: 129.600
Krasnodar Ground: 119.000
Krasnodar Radar: 121.300
Krasnodar Tower: 118.200

URMT Twr/App/Control (Archives)
Stavropol, Russia

Feed Status: UP
Listen in your browser - HTML5 player(in browser, HTML5)
Click here to listen with your own player(launches your MP3 player)

URMT 222330Z 27013MPS 9999 SCT020 05/M01 Q1013 R25/010070 TEMPO 27015G22MPS RMK QFE721

URMT Flight Activity (Flightaware)

Listeners: 0 out of 1107 total

Stavropol Approach: 120.300
Stavropol Control: 118.250
Stavropol Tower: 120.900

URSS Gnd/Twr/App (Archives)
Sochi, Russia

Feed Status: UP
Listen in your browser - HTML5 player(in browser, HTML5)
Click here to listen with your own player(launches your MP3 player)

URSS 222330Z 07003MPS 9999 FEW022 OVC070 07/04 Q1022 R06/010070 R02/010070 NOSIG RMK R02/07001MPS MT OBSC QFE766

URSS Flight Activity (Flightaware)

Listeners: 0 out of 1107 total

Sochi Approach: 118.300
Sochi Approach: 119.700
Sochi District (Small Aircraft): 118.500
Sochi Start: 121.200
Sochi Taxi: 119.000
Sochi Tower: 124.600

USDD Gnd/Twr/App/Control (Archives)
Salekhard, Russia

Feed Status: UP
Listen in your browser - HTML5 player(in browser, HTML5)
Click here to listen with your own player(launches your MP3 player)

USDD 150530Z 05007MPS 9999 -SHRA BKN009CB 09/07 Q1002 R04/290060 NOSIG RMK QFE746/0994

USDD Flight Activity (Flightaware)

Listeners: 0 out of 1107 total

Salekhard Control: 132.300
Salekhard Ground: 118.800
Salekhard Info: 125.200
Salekhard Krug: 120.800
Salekhard Tower: 118.600
Salekhard Transit: 131.700

UUDD Twr/App
Moscow, Russia

Feed Status: DOWN
Offline since: 2019-03-21 18:37:03 UTC

UUDD 222330Z 34006MPS 2700 -SN BKN008 OVC030 M00/M01 Q1011 R32L/520195 NOSIG

Domodedovo Tower: 118.600
Moscow Approach: 125.300
Moscow Approach: 127.700